GFSNGP_con_lsi_000.txt.gz
Lid_Strength_Index
9 9 9 10 10 9 10 10 13 11 10 8 7 7 6 5 4 4 5 4 4 4 5 4 4 3 3 3 4 4 4 5 4 3 3 3 3 3 3 3 3 3 3 3
12 10 9 11 9 9 9 9 10 10 10 7 6 6 6 6 6 6 5 5 5 6 6 5 5 3 3 4 4 4 5 4 4 3 3 4 3 3 3 3 3 4 4 4
16 11 11 15 11 9 9 8 9 11 8 7 7 6 6 5 5 6 6 6 7 7 5 4 4 3 4 4 3 3 4 4 3 3 4 3 3 3 4 4 4 4 4 4
15 14 18 10 7 8 9 8 7 8 7 7 6 5 5 5 6 8 7 7 6 5 5 4 3 3 3 3 3 3 3 3 3 3 4 3 3 4 4 4 4 4 4 4
16 15 12 10 9 9 10 9 7 8 7 6 5 5 6 7 7 6 6 5 5 4 4 3 2 2 2 3 3 3 3 3 3 3 3 4 4 4 4 4 4 4 4 4
14 17 18 10 8 7 7 12 7 7 7 7 6 11 9 6 6 6 5 5 5 5 4 3 2 2 2 2 2 2 3 2 2 2 3 4 4 4 3 3 4 4 4 3
14 16 13 8 7 7 14 13 7 7 7 7 9 8 7 6 6 5 5 5 5 5 5 3 1 1 2 2 3 3 2 2 2 2 3 4 3 3 3 4 4 4 4 4
13 16 17 7 8 11 8 6 7 7 6 7 7 7 7 7 7 6 6 5 5 5 4 3 1 1 2 3 2 2 1 2 2 3 4 4 3 3 3 4 4 5 5 5
11 11 6 5 6 5 6 7 6 6 6 6 7 8 8 7 7 6 6 5 5 4 4 3 2 1 3 3 2 2 2 2 2 3 4 3 3 4 4 4 5 6 6 6
10 8 7 6 5 5 5 6 7 6 6 7 8 8 7 7 7 6 6 6 5 5 4 3 2 1 2 2 2 2 2 2 3 3 4 3 3 4 5 5 6 7 7 7
10 7 6 6 5 6 6 6 7 6 7 8 8 8 8 7 7 7 6 5 5 4 4 3 2 2 2 2 2 3 3 3 4 3 4 4 4 5 5 5 6 7 8 8
12 7 7 7 6 6 6 6 7 8 8 8 7 7 7 7 6 6 5 5 4 3 3 3 3 3 3 3 3 3 4 4 4 4 4 4 5 5 7 7 8 8 9 8
7 6 6 6 6 5 6 8 8 8 7 7 6 6 7 7 6 5 4 4 3 3 3 3 3 3 3 3 4 5 5 5 4 5 4 5 5 6 6 5 7 9 9 9
6 7 8 7 7 7 8 8 7 6 6 6 6 6 5 5 4 4 4 3 2 3 3 3 4 3 3 4 4 5 5 6 4 4 4 5 6 6 6 7 7 7 8 10
7 6 6 7 7 8 7 7 7 7 7 6 5 5 4 5 4 4 3 3 3 3 3 3 3 4 4 4 5 6 5 5 4 4 5 6 6 6 6 7 7 8 8 9
7 7 8 8 8 8 7 8 8 8 7 6 6 6 5 4 4 4 4 5 5 5 4 5 5 4 5 5 5 5 6 6 6 5 5 6 6 7 7 7 7 8 9 10
9 10 9 9 9 9 9 8 7 7 7 6 6 6 5 6 6 5 5 5 5 6 5 5 5 4 5 5 5 5 5 6 7 5 6 6 7 7 7 7 7 7 8 10
8 8 9 9 9 9 8 7 7 7 7 6 7 7 7 7 6 5 5 5 5 5 5 5 5 5 6 5 6 6 5 5 5 6 6 7 7 7 7 7 7 8 8 9
9 9 8 8 7 7 7 7 7 7 7 7 7 7 6 6 5 4 4 5 6 6 4 4 6 6 6 6 6 6 5 5 6 6 6 7 7 7 7 7 7 7 8 8
9 8 7 7 7 7 7 7 7 6 6 6 6 7 7 6 5 5 4 5 5 4 3 4 5 5 5 6 6 6 6 6 6 6 6 7 7 7 7 8 8 7 7 8
9 8 7 7 7 7 7 7 7 7 6 6 7 7 6 5 5 5 5 5 3 4 4 5 5 4 5 5 6 5 5 6 6 6 6 7 7 7 7 7 7 7 7 7
8 7 7 7 7 7 6 5 5 6 6 6 6 6 6 5 4 4 4 5 3 5 3 3 3 5 4 6 5 5 6 5 5 5 6 6 7 7 7 7 7 7 7 7
7 7 7 7 7 6 5 6 6 6 6 5 6 6 5 4 4 5 5 3 3 4 3 3 4 6 6 5 5 5 5 6 5 5 5 6 6 6 7 7 7 7 7 7
6 6 5 5 5 6 6 4 4 4 5 4 4 4 5 4 4 2 2 4 5 5 4 4 5 6 6 5 5 5 5 5 5 5 5 6 6 6 6 6 6 6 7 7
5 5 5 6 6 4 4 4 4 4 4 4 4 3 3 3 4 4 4 4 5 4 4 5 6 5 5 5 5 5 6 6 5 5 5 5 5 5 5 6 6 6 6 6
5 4 4 4 4 4 4 4 5 4 4 4 4 4 3 3 3 4 4 4 3 4 3 4 4 4 4 5 5 5 6 6 6 6 6 5 5 5 5 5 5 5 6 6
4 5 4 4 3 3 3 3 4 5 4 5 5 4 4 4 4 4 4 4 4 4 4 4 4 4 4 5 5 5 5 5 6 6 6 6 6 5 5 5 5 5 5 5

GFSNGP_con_lsi_003.txt.gz
Lid_Strength_Index
9 8 8 9 9 9 9 9 12 11 10 8 6 6 5 4 4 4 5 4 4 4 4 4 4 4 3 2 2 2 2 2 3 3 2 2 2 2 2 2 2 2 3 3
11 8 9 10 9 8 8 9 9 9 9 6 5 5 5 5 5 5 5 5 5 5 5 5 5 4 3 2 2 2 2 2 2 2 2 2 2 2 3 2 2 3 3 3
15 10 11 15 10 9 8 7 8 11 8 6 6 6 6 6 5 5 5 6 5 5 5 5 4 4 3 2 2 3 2 2 2 2 2 2 2 3 3 3 3 3 3 3
15 14 19 10 6 7 8 7 6 7 6 6 7 5 5 5 6 6 6 5 5 5 5 5 4 3 2 2 2 2 2 2 2 2 2 2 2 3 3 3 3 3 3 3
16 14 11 9 8 8 9 9 6 7 7 6 5 5 6 5 5 5 5 5 5 5 5 5 5 4 3 2 2 2 2 1 1 1 1 2 3 2 3 3 3 3 3 3
14 17 18 10 7 6 6 12 7 6 7 7 6 10 7 5 5 5 5 5 6 5 5 5 5 4 3 3 2 2 2 2 1 1 1 2 2 3 3 3 3 3 3 3
14 16 12 7 6 5 13 12 6 6 6 6 8 7 6 5 6 6 6 6 5 5 6 5 4 3 3 3 2 1 1 1 1 0 0 1 2 3 3 3 3 3 4 3
13 16 17 6 7 11 7 5 6 6 6 6 6 6 6 7 7 7 6 6 6 6 6 4 4 4 3 3 1 1 1 1 1 0 1 2 3 3 3 3 4 4 4 4
10 10 6 5 7 5 4 5 6 6 6 6 6 7 7 7 7 7 6 6 6 6 5 5 4 3 4 2 1 1 1 1 1 1 2 3 3 3 4 4 5 5 6 5
9 7 6 6 5 4 4 5 5 5 5 6 7 7 7 7 7 7 6 6 6 5 5 5 3 3 2 1 1 1 2 2 2 2 3 2 3 3 4 5 6 6 7 7
9 6 6 5 5 4 4 4 5 5 5 6 7 7 7 7 7 7 6 5 5 5 4 4 2 2 2 2 2 2 2 3 3 3 3 3 3 4 4 5 6 7 7 8
10 6 7 6 5 4 5 5 5 6 7 6 6 7 7 7 6 6 6 5 5 4 3 2 2 2 2 1 2 3 4 4 3 3 3 3 4 4 7 7 8 8 9 8
6 5 6 5 5 5 5 6 6 7 6 7 6 6 6 6 6 6 5 5 4 3 2 2 3 3 2 2 3 4 4 5 4 4 4 4 5 6 6 6 7 8 8 9
5 5 7 6 6 5 6 6 6 6 6 7 7 6 6 6 5 5 5 3 2 2 2 2 3 3 2 2 3 4 4 6 5 4 4 4 5 6 6 7 7 6 7 9
6 5 5 5 6 6 7 7 8 8 8 7 7 7 6 6 6 5 3 2 2 3 2 2 3 3 2 3 4 4 5 6 5 5 5 5 5 6 6 6 6 6 6 7
6 6 6 7 8 8 8 8 9 8 8 8 7 6 6 5 4 4 3 2 4 5 4 5 5 3 2 3 4 4 4 6 6 5 5 5 6 6 7 7 7 7 7 7
7 8 8 9 9 9 9 8 8 8 7 7 7 6 6 6 6 5 4 3 4 5 4 5 5 3 3 3 4 4 4 5 6 6 5 6 6 6 7 7 7 7 7 7
6 7 9 9 9 9 8 7 8 7 7 6 7 7 7 6 6 6 5 4 4 5 4 4 4 3 4 3 4 5 5 6 6 6 6 6 6 7 6 7 7 7 7 7
9 9 9 8 8 8 7 8 7 7 7 7 7 7 6 6 5 5 4 5 5 5 3 2 5 5 4 5 5 5 5 6 6 5 6 6 6 6 6 6 6 6 6 7
9 9 8 8 7 8 8 7 7 6 5 5 6 6 6 5 5 5 5 5 4 4 3 3 4 4 4 4 6 5 5 5 6 5 5 6 6 6 6 6 6 6 6 6
9 8 8 8 8 7 8 7 8 7 5 5 6 6 6 5 5 5 5 4 3 3 3 4 3 3 3 4 5 4 4 5 5 5 5 6 6 6 6 6 5 6 6 6
8 8 8 8 7 7 6 5 5 6 6 6 6 5 6 5 5 4 3 4 2 4 3 3 3 4 3 5 4 4 5 5 5 5 5 5 5 6 6 6 6 6 5 6
8 8 7 7 7 6 5 5 6 6 6 5 5 5 4 4 4 5 5 2 2 3 2 2 3 5 5 4 4 4 5 5 5 5 5 5 5 6 6 6 5 5 6 6
7 6 6 5 5 5 6 4 3 3 5 5 4 4 4 5 4 2 2 3 4 4 4 3 4 5 5 4 4 4 4 4 4 4 4 5 4 5 5 5 5 5 5 5
5 5 5 5 5 4 4 3 3 3 3 3 3 2 3 3 4 4 4 4 4 4 4 4 5 5 5 5 4 4 4 4 5 5 5 4 4 4 5 5 5 5 5 5
5 4 3 3 3 3 3 3 3 2 3 4 3 3 3 3 3 4 4 4 4 3 4 4 4 5 4 4 4 4 4 5 5 5 5 5 5 5 5 5 5 5 4 4
3 4 3 2 2 2 2 2 3 3 4 4 4 3 3 3 4 4 4 4 4 4 4 4 4 4 4 4 4 4 4 4 5 5 5 5 6 6 5 5 5 5 4 4

GFSNGP_con_lsi_006.txt.gz
Lid_Strength_Index
9 8 8 9 9 9 10 9 13 11 10 8 7 7 6 5 5 5 5 4 5 5 5 5 5 5 5 4 3 3 3 3 3 3 3 3 3 3 3 3 3 3 3 3
11 8 9 10 9 9 9 9 9 9 10 6 6 6 6 6 5 6 5 6 5 5 6 6 5 6 5 5 3 2 3 3 2 2 3 3 2 2 2 3 3 3 3 4
15 11 12 15 11 9 8 8 8 12 8 6 7 7 6 6 5 6 6 6 6 6 6 6 6 6 6 5 4 3 3 2 2 2 2 1 1 1 2 3 3 3 4 4
15 14 19 10 6 7 8 7 7 7 7 7 7 6 5 5 6 7 7 7 6 6 7 6 6 6 6 5 5 4 3 2 1 1 1 1 1 1 2 2 3 4 4 4
17 15 12 10 8 9 10 10 6 7 7 6 6 6 6 6 6 6 6 6 7 6 6 6 7 6 6 6 5 4 4 2 2 1 1 2 2 2 2 3 4 4 4 4
14 17 18 10 7 5 6 13 7 7 7 7 7 11 8 6 6 6 7 7 7 7 7 7 6 6 6 6 5 4 3 2 2 1 1 2 1 2 3 4 4 4 5 5
15 15 13 7 6 5 14 13 7 6 6 7 8 7 6 6 7 7 7 7 7 7 7 7 6 6 6 6 5 3 2 2 1 1 1 1 2 3 4 4 5 5 6 6
13 15 17 6 6 11 8 6 6 6 6 6 6 6 6 7 8 8 8 7 7 7 7 6 5 5 6 5 3 2 2 2 2 1 1 2 3 4 4 5 6 7 8 7
11 12 6 5 6 5 5 6 6 6 6 6 6 6 7 8 8 8 8 8 7 7 7 6 5 5 5 3 2 2 2 2 2 2 2 3 5 5 5 5 7 8 8 8
10 7 6 5 4 5 4 5 5 5 5 5 7 7 8 8 8 8 8 7 7 7 6 6 5 3 3 2 2 2 3 3 3 3 4 4 4 4 5 7 8 8 9 9
9 7 6 5 5 5 5 5 5 5 5 7 7 8 8 8 8 7 7 7 7 6 6 5 4 3 2 3 2 3 3 4 4 5 5 5 4 6 6 7 8 9 9 10
11 6 7 6 5 5 6 6 5 6 7 7 7 8 8 8 8 7 8 7 6 6 5 4 3 3 2 2 2 3 5 5 5 5 6 6 6 6 6 7 7 8 8 10
6 5 5 5 5 5 6 6 6 7 7 8 8 8 8 9 8 8 7 6 6 5 4 3 3 3 2 3 4 4 5 6 6 6 6 6 6 7 8 6 6 7 8 8
4 4 6 6 6 5 6 6 7 7 8 8 8 8 8 8 8 7 7 6 5 4 4 4 3 3 2 2 4 5 5 6 6 5 6 7 7 7 7 7 9 8 7 7
5 5 5 5 5 6 7 7 9 9 9 9 8 9 8 8 8 7 6 6 5 4 3 4 4 4 3 3 4 5 5 6 6 6 6 7 6 6 7 7 8 8 8 8
5 5 6 7 7 8 8 9 10 10 9 9 9 9 8 7 7 7 6 5 6 6 5 5 6 5 4 3 4 4 4 6 8 6 6 6 6 7 7 7 7 8 9 10
6 8 7 8 9 9 9 9 9 9 9 9 9 8 8 8 8 8 7 6 6 6 5 5 5 4 4 3 4 4 5 5 6 6 6 6 7 7 7 7 8 8 9 11
5 6 8 9 9 9 9 9 9 9 9 8 10 11 11 11 9 8 7 6 6 5 5 4 4 5 4 4 4 5 6 6 6 6 6 6 6 7 7 7 7 8 8 9
8 9 9 9 9 8 9 9 9 9 10 10 10 9 9 8 7 6 6 6 6 6 4 4 5 5 4 5 6 6 6 6 6 6 6 6 7 7 7 6 7 7 8 8
9 9 9 9 9 9 10 9 10 9 8 8 10 9 8 8 8 6 6 7 5 5 3 4 4 5 5 5 7 6 5 5 6 6 6 6 7 6 6 7 7 7 6 7
10 9 10 9 9 10 10 10 10 9 7 9 8 8 8 6 6 6 6 6 5 4 4 3 4 4 4 4 5 5 6 5 6 6 6 6 6 6 6 6 6 6 6 6
9 10 11 10 10 9 8 7 7 8 8 7 8 7 6 6 6 6 5 5 4 4 4 4 3 4 4 7 5 5 6 5 6 5 6 5 5 6 6 6 6 6 6 6
9 9 9 10 9 7 6 7 7 7 7 7 6 6 6 5 5 6 6 4 4 4 4 4 3 4 4 5 5 5 6 6 6 6 5 5 5 5 6 6 6 6 6 6
8 8 7 7 7 7 7 5 5 5 6 6 6 5 5 5 4 4 3 4 4 4 4 4 4 4 5 5 6 5 6 6 5 5 5 5 5 5 6 5 6 5 5 5
7 7 6 7 6 5 4 4 4 4 4 4 4 4 4 3 4 4 4 4 4 4 4 4 4 5 5 5 5 5 5 5 5 5 5 5 5 5 5 4 5 5 5 5
6 5 5 4 4 3 3 3 3 3 3 4 4 4 3 3 3 3 4 4 4 4 4 4 4 4 5 5 5 5 5 5 5 5 5 5 6 6 5 5 5 5 5 5
4 5 4 3 3 2 2 3 3 3 3 4 5 4 4 4 4 3 4 4 4 4 4 4 4 4 4 5 5 5 5 5 5 5 5 6 6 6 6 6 6 6 6 5

GFSNGP_con_lsi_009.txt.gz
Lid_Strength_Index
10 10 10 10 10 10 11 11 15 13 12 10 9 8 8 7 6 6 7 7 7 8 8 8 8 8 8 8 7 7 5 5 5 5 4 4 4 3 3 4 4 4 5 3
14 10 10 12 11 10 10 10 11 10 11 8 7 7 7 7 7 8 8 8 8 7 8 8 9 9 9 9 8 7 7 6 4 4 4 3 2 2 3 5 4 5 4 4
17 12 13 16 12 10 10 9 10 13 10 8 8 8 8 8 8 8 8 8 8 8 8 9 9 9 10 9 8 8 7 5 4 4 4 3 1 2 3 4 5 5 5 5
18 17 21 12 8 8 9 9 9 9 8 8 8 8 8 8 9 9 8 8 8 9 10 10 10 10 10 9 9 8 7 6 4 4 4 2 1 2 3 4 5 6 6 6
17 18 14 11 9 10 11 11 8 9 8 8 7 8 9 8 8 9 9 9 10 10 10 10 10 10 10 9 9 8 6 6 5 4 3 3 2 2 3 5 6 6 6 6
17 21 22 13 8 7 7 15 8 8 8 8 9 14 11 7 8 9 9 9 10 10 10 11 10 10 10 9 8 7 6 5 3 3 3 3 2 3 5 6 5 6 6 7
15 22 16 9 7 6 15 14 8 7 8 8 10 10 8 7 9 9 9 10 9 10 11 11 10 9 9 9 8 6 5 3 3 3 3 3 4 5 6 7 7 8 8 8
15 19 19 7 8 12 9 7 7 8 8 8 8 8 7 8 9 9 10 10 10 11 11 10 9 8 9 8 7 5 4 3 4 3 3 4 6 6 7 8 8 9 13 12
13 14 9 7 8 7 6 7 7 7 6 7 7 7 8 9 9 9 11 11 10 11 10 9 8 8 8 7 6 4 4 5 4 4 4 5 6 8 8 8 10 10 10 13
11 9 8 8 6 5 5 6 6 6 6 6 7 9 9 9 10 11 11 11 11 10 10 9 8 7 7 6 5 4 5 5 5 5 5 6 7 8 8 11 12 9 11 12
11 8 8 7 6 6 6 5 5 5 5 7 9 9 10 11 11 11 12 11 10 10 9 8 7 7 7 5 5 5 5 5 6 7 7 7 7 9 9 9 10 11 12 12
13 8 8 8 6 5 5 5 5 6 9 8 9 10 11 11 11 11 11 10 10 9 8 8 7 7 6 5 5 6 6 7 8 8 9 8 8 9 6 7 7 7 8 13
8 6 6 6 5 5 6 7 8 8 8 10 10 10 11 11 11 10 10 10 9 8 7 7 7 7 5 5 6 7 6 6 8 8 9 9 10 10 12 9 5 5 7 7
5 6 7 6 7 6 7 8 7 8 10 10 11 11 11 11 11 10 10 9 8 8 8 8 7 6 5 5 6 7 7 7 9 10 10 10 11 8 8 10 11 12 8 7
6 5 6 5 6 7 7 9 10 11 11 11 11 11 11 11 11 10 9 8 8 8 8 7 6 5 4 5 5 5 7 9 9 10 12 10 8 8 8 9 9 10 11 10
6 5 5 7 8 10 10 11 12 12 12 11 11 12 10 10 10 10 9 9 10 9 8 8 8 5 5 5 5 5 7 9 9 10 11 8 8 9 9 9 9 9 11 14
7 8 9 9 11 11 11 11 11 12 11 11 12 11 11 11 12 11 10 10 11 9 7 8 6 4 4 4 5 5 8 8 10 10 10 8 8 9 8 9 9 9 11 14
8 8 9 10 11 11 11 12 12 12 12 12 14 16 17 16 12 11 11 9 7 7 6 6 5 4 5 5 5 6 7 9 10 11 9 8 8 8 9 10 9 9 12 12
9 10 10 10 10 11 12 12 12 12 14 14 15 14 14 13 11 10 8 8 7 7 6 5 5 4 5 6 7 10 12 12 9 7 9 11 11 9 8 8 8 8 9 12
11 10 10 11 11 12 13 12 14 11 10 12 16 16 13 14 10 8 7 7 6 6 5 5 4 4 6 6 8 9 12 13 10 9 14 13 10 8 8 8 8 9 11 9
12 12 12 12 12 13 13 13 15 12 10 13 14 12 12 11 11 7 7 7 6 8 6 4 4 4 5 6 9 10 12 14 13 13 13 12 12 9 7 7 7 10 12 10
11 12 13 14 13 11 11 11 10 12 10 9 12 12 13 10 9 7 6 6 6 5 5 5 5 4 4 6 5 7 10 10 10 10 14 12 11 9 9 8 7 7 8 11
11 11 12 13 14 10 10 10 11 9 9 9 10 8 7 8 7 7 7 7 6 5 5 4 4 4 4 4 6 6 7 10 11 11 10 9 7 7 7 7 7 7 7 7
10 10 10 10 12 11 10 7 8 7 8 8 7 5 7 8 7 6 5 4 5 4 4 4 4 4 4 5 6 7 8 7 7 9 10 11 9 8 8 7 6 6 6 6
10 9 9 11 9 8 7 6 7 7 7 7 7 7 8 8 7 5 4 4 4 4 4 4 4 4 4 5 6 6 7 7 7 7 7 8 7 6 7 6 6 6 6 6
8 8 8 7 7 7 7 7 7 7 9 11 11 11 11 10 6 4 4 4 4 4 4 4 4 4 4 4 5 6 6 6 6 6 5 6 6 6 6 6 6 6 6 6
7 9 8 8 7 7 7 8 10 8 8 7 8 9 9 5 4 6 4 4 4 4 4 4 4 4 4 4 4 5 5 5 5 5 5 5 6 6 6 6 6 6 6 7

GFSNGP_con_lsi_012.txt.gz
Lid_Strength_Index
12 11 11 12 12 12 12 12 15 13 12 11 9 9 8 8 8 9 8 8 8 8 9 9 10 10 10 10 10 9 10 10 8 7 7 6 5 5 4 3 2 3 4 4
14 11 11 13 12 12 12 11 12 12 13 8 8 8 8 9 9 9 9 9 9 9 9 10 10 11 10 10 10 9 10 8 7 7 6 6 5 4 3 3 4 3 4 4
17 13 14 17 12 11 11 10 11 14 11 9 9 9 9 10 9 9 9 9 9 9 10 10 11 11 11 11 10 10 9 8 7 6 6 6 4 3 3 3 3 5 6 6
19 18 22 12 9 9 10 10 9 9 9 9 9 9 9 9 10 9 9 9 10 11 11 11 11 11 11 11 10 10 9 8 7 7 7 5 4 4 3 3 5 6 6 6
20 18 16 12 10 10 12 12 9 9 9 9 9 9 10 8 9 9 10 10 10 11 11 11 11 11 11 11 11 9 8 8 7 6 6 5 4 4 4 5 6 6 6 7
17 22 23 15 9 8 9 15 8 8 9 9 9 14 12 8 8 10 10 10 11 11 11 12 11 11 11 11 11 9 8 7 6 5 4 4 4 4 6 7 6 7 7 8
22 23 17 11 8 8 15 14 8 8 9 9 11 10 9 7 9 10 10 11 11 11 12 11 11 11 11 11 10 8 7 6 6 5 5 5 5 6 6 7 8 9 9 9
19 22 19 9 9 12 11 8 8 8 8 8 8 8 7 8 10 10 11 12 11 11 11 11 11 11 11 10 9 7 7 7 6 6 5 5 7 7 7 9 9 10 16 13
13 14 10 8 9 8 7 7 9 9 8 7 8 8 7 10 11 11 12 12 11 12 12 11 10 10 10 9 8 8 7 7 7 6 6 6 8 8 9 9 12 11 10 14
12 9 9 8 7 6 7 8 8 7 7 7 7 8 11 12 12 12 13 13 12 12 12 11 10 9 9 8 7 8 7 7 7 7 7 7 7 7 9 12 13 10 11 13
12 9 8 7 7 7 8 8 7 6 5 6 9 12 12 12 12 12 13 12 12 12 11 10 10 9 8 8 7 7 7 7 7 8 8 7 8 8 9 10 10 12 12 13
12 9 9 8 7 7 7 7 5 6 9 10 11 12 12 13 12 12 12 12 12 11 10 10 9 9 8 7 6 6 7 7 8 9 10 8 8 7 6 7 7 6 7 13
8 6 6 7 7 6 6 6 7 9 11 12 12 12 12 13 12 12 12 12 11 10 10 10 10 9 8 7 6 6 7 7 7 8 9 10 10 10 13 9 6 6 6 7
6 6 8 7 8 6 7 7 9 11 11 12 12 12 12 12 12 12 12 11 10 10 9 9 9 8 7 5 6 6 6 7 8 7 9 9 13 10 8 13 15 13 9 7
6 6 6 6 6 8 8 10 11 12 12 12 12 12 12 12 12 12 11 11 10 10 9 8 8 8 6 5 6 6 5 6 9 11 11 11 12 11 9 10 11 12 13 12
6 7 7 7 9 10 11 11 12 12 12 12 12 13 12 12 12 11 11 11 11 10 9 8 8 7 5 4 5 6 5 7 11 11 9 9 11 11 9 9 10 10 12 15
9 10 11 11 11 11 11 11 12 12 12 12 13 12 12 13 14 12 11 11 11 9 8 7 8 5 5 4 5 5 6 7 7 7 8 8 11 10 10 10 10 12 13 16
8 9 10 10 11 11 12 12 12 12 12 12 14 18 19 19 14 13 12 12 9 8 7 7 6 5 5 4 4 5 7 7 8 7 9 13 10 8 10 11 12 10 10 12
10 10 10 10 11 12 13 13 12 12 14 16 17 16 17 16 13 11 11 12 8 9 8 8 7 5 4 4 5 7 10 13 12 11 11 13 15 12 10 11 10 10 10 13
10 10 11 11 12 12 13 12 14 12 12 14 18 19 15 13 13 12 11 10 8 7 8 7 6 5 5 5 5 8 12 13 12 12 16 16 17 13 8 10 9 10 14 15
12 12 12 13 13 13 15 15 15 14 12 15 16 12 12 11 12 12 12 9 7 10 8 5 6 5 5 4 5 9 12 13 13 12 13 14 16 15 11 7 8 10 13 17
12 12 13 14 13 12 12 13 11 14 14 12 9 11 12 9 11 12 11 9 6 9 6 5 5 4 4 4 5 5 6 7 9 10 11 13 13 13 12 9 11 8 8 11
11 11 11 14 15 11 11 12 13 13 11 11 10 10 11 8 9 10 8 7 8 5 5 5 5 4 4 4 4 5 6 7 7 8 9 10 11 12 9 7 7 7 7 7
10 10 10 10 12 11 11 8 8 8 10 9 9 10 8 8 11 9 8 8 8 5 4 4 4 4 4 4 5 5 5 6 6 7 8 8 8 8 9 8 7 6 7 8
10 10 9 11 9 9 8 7 8 8 8 7 8 8 7 7 9 8 10 7 5 5 5 4 4 4 4 4 4 5 6 6 6 6 6 7 7 6 6 6 6 6 6 6
8 9 8 7 8 8 8 8 9 9 11 12 11 8 7 7 8 7 5 5 5 5 4 4 4 4 4 4 4 4 4 5 6 6 6 6 6 5 5 5 5 5 5 6
8 10 9 8 7 7 8 9 9 7 9 10 8 8 9 8 7 6 6 6 7 6 5 7 6 5 5 4 4 5 5 4 5 5 5 5 5 5 5 5 6 6 6 6

GFSNGP_con_lsi_015.txt.gz
Lid_Strength_Index
12 12 12 13 13 12 13 13 15 14 13 11 10 10 9 9 9 9 10 9 9 9 9 9 11 11 11 11 11 10 11 10 9 8 8 8 8 8 7 6 5 3 5 4
14 12 12 14 13 13 13 13 12 13 13 9 9 9 9 9 10 10 9 9 9 9 9 10 11 12 11 11 11 10 11 9 9 8 8 8 8 7 6 5 4 5 4 6
18 14 15 18 14 12 12 11 12 14 11 10 10 9 10 10 10 10 10 10 10 10 10 11 12 12 12 11 11 11 11 9 9 8 8 8 7 6 6 6 3 5 7 7
19 18 22 14 10 10 11 11 10 11 10 10 10 10 10 10 10 10 10 9 9 11 12 12 12 12 11 11 11 11 11 10 9 9 9 8 7 6 6 5 6 7 7 7
20 19 16 14 11 11 12 13 9 10 10 10 10 11 11 10 9 9 9 10 11 12 12 12 12 12 12 12 12 12 10 10 9 9 8 7 7 6 6 6 7 7 7 8
18 23 23 15 10 9 10 15 9 9 10 10 11 15 12 9 9 9 10 11 12 12 12 12 12 12 12 12 12 11 10 9 9 8 8 8 8 7 7 7 6 7 8 9
24 23 17 12 9 8 15 15 9 8 9 10 11 11 10 8 8 10 11 12 12 12 13 12 12 12 12 12 12 10 9 9 8 8 8 8 8 8 8 8 8 9 10 10
18 21 19 10 10 12 10 10 8 8 8 9 9 9 8 8 10 11 12 13 12 13 13 12 12 12 12 12 10 10 9 9 8 8 8 7 8 8 8 8 9 10 17 14
14 14 10 9 9 8 8 8 8 8 8 8 9 8 7 10 12 12 13 13 13 13 13 12 11 12 12 11 10 9 9 8 8 8 8 8 9 9 9 9 11 11 10 14
13 10 10 9 8 7 7 8 8 7 8 8 8 8 10 12 13 13 14 14 13 13 13 12 11 11 11 10 9 9 9 7 7 7 7 8 8 8 9 11 12 10 12 13
12 10 9 7 7 7 7 7 7 7 7 7 7 11 12 13 13 14 14 13 13 13 12 12 11 11 11 10 9 9 8 7 7 7 8 8 8 8 8 8 9 11 12 13
13 9 9 9 7 7 8 7 7 7 9 10 10 12 13 14 13 13 13 13 13 12 12 12 11 11 11 9 8 7 7 6 7 7 8 8 8 8 6 6 7 6 6 13
9 8 8 7 7 7 7 7 6 10 11 12 12 12 13 13 13 12 13 13 12 12 12 12 12 11 10 9 8 7 7 6 7 7 8 9 9 9 12 9 6 6 6 6
6 7 9 8 8 6 7 9 10 11 11 12 12 12 13 13 12 12 13 12 11 12 12 12 11 9 8 8 7 7 6 7 6 7 7 7 8 11 12 12 15 14 9 7
7 6 7 7 7 9 11 11 12 12 12 12 12 13 12 13 13 13 12 12 12 12 12 10 10 9 8 7 6 6 6 6 7 7 9 9 10 13 11 10 11 14 15 12
7 7 7 8 9 11 11 11 12 12 13 13 13 13 12 12 12 12 12 12 13 13 11 10 9 8 7 6 6 5 5 6 7 8 9 8 8 10 10 11 10 12 15 15
9 10 11 12 11 11 11 11 11 12 13 13 13 12 12 14 15 13 12 13 15 14 11 11 10 7 6 6 5 5 5 6 7 7 9 10 11 11 10 11 9 10 14 17
9 10 10 11 12 12 12 12 13 12 13 13 15 17 17 18 15 14 14 14 14 13 10 9 9 7 6 6 5 5 5 6 7 7 7 12 12 9 9 11 11 13 11 14
10 10 10 10 10 11 12 13 12 13 15 15 16 15 16 15 14 13 14 15 14 12 9 10 9 7 6 6 5 6 6 6 9 11 11 13 15 12 11 11 10 12 11 12
10 10 10 12 12 13 13 12 14 13 12 15 17 18 15 14 16 15 15 13 10 8 8 9 8 7 7 6 5 5 6 8 10 12 17 15 16 14 14 13 9 8 9 14
12 12 13 13 13 13 13 14 15 14 12 16 15 13 12 12 14 15 11 11 8 10 9 9 6 6 5 5 4 4 6 8 11 11 9 10 13 14 13 13 9 8 9 11
12 12 13 13 13 12 12 13 12 14 15 16 15 10 10 11 12 13 12 10 8 11 9 8 6 5 5 5 4 4 5 6 7 6 8 9 10 10 10 10 9 9 9 8
11 11 11 13 14 11 12 13 15 15 14 13 12 11 11 9 11 9 9 9 9 11 9 9 8 6 5 4 4 4 4 5 5 6 7 7 7 8 8 9 9 8 7 7
10 11 11 11 13 13 12 9 9 9 11 10 10 10 10 10 7 7 8 9 12 12 10 7 8 5 4 4 4 4 5 5 5 5 6 7 6 7 8 8 8 7 7 7
11 10 9 11 9 9 8 8 9 9 9 8 9 9 9 6 7 10 11 11 8 8 10 9 5 6 6 4 4 5 5 5 5 5 5 6 7 7 7 7 6 6 6 6
8 9 9 8 9 9 8 9 9 9 10 10 10 10 10 10 9 9 9 9 10 11 11 11 11 8 7 8 9 9 8 7 6 5 5 5 6 6 6 6 6 6 6 5
9 11 9 9 8 8 8 9 9 8 8 8 8 8 9 9 9 10 8 9 11 12 12 13 13 13 14 13 13 14 13 13 13 12 10 8 6 5 5 5 5 5 6 6

GFSNGP_con_lsi_018.txt.gz
Lid_Strength_Index
14 13 13 14 13 12 13 14 16 15 15 13 10 10 9 9 10 10 10 10 10 10 10 10 10 11 11 11 11 11 11 11 10 10 9 9 9 9 8 8 7 4 5 6
14 13 13 14 13 13 13 13 13 14 13 11 10 10 10 10 10 11 10 10 10 9 9 9 11 11 12 12 11 11 11 11 10 10 9 9 9 9 8 8 7 6 7 7
19 15 16 18 14 13 13 13 13 15 12 10 11 10 10 10 10 10 10 10 10 9 10 11 11 12 12 12 12 12 12 11 10 10 10 9 9 9 8 8 7 8 8 8
20 19 22 14 12 12 12 12 11 11 11 10 11 10 9 9 10 10 10 10 9 9 11 12 12 12 12 12 12 12 12 11 10 10 10 10 9 8 8 8 7 8 8 8
21 20 17 14 13 12 12 13 10 11 11 10 10 10 10 9 9 10 9 9 10 11 12 12 13 13 13 13 13 12 12 11 10 10 10 10 9 9 8 8 8 8 7 8
22 22 23 15 12 10 10 15 10 9 10 10 10 14 10 9 9 10 10 11 12 12 12 13 13 13 13 13 13 12 11 11 10 10 10 10 9 9 8 8 8 8 8 9
25 23 18 13 10 9 15 14 10 9 10 11 11 10 9 9 9 9 11 12 12 12 13 13 13 12 13 13 12 11 11 11 10 10 10 9 9 9 9 9 9 9 9 9
20 24 19 11 10 13 11 11 9 9 9 9 9 10 9 8 10 12 12 12 12 13 13 13 12 13 13 13 11 11 11 10 10 10 9 8 9 9 8 9 10 10 17 13
15 15 11 10 10 9 9 9 8 9 8 7 9 9 8 11 13 13 12 13 13 13 13 12 12 12 13 12 11 11 11 11 10 9 8 8 9 9 10 10 12 11 10 13
13 11 11 10 9 9 8 8 8 7 8 8 8 8 10 12 12 13 13 13 13 13 13 13 12 12 12 12 11 11 11 10 9 9 8 8 7 8 9 12 11 9 11 12
13 10 10 9 8 8 8 7 7 7 7 7 8 9 11 12 13 13 13 13 13 13 13 13 12 12 12 12 11 11 10 9 8 8 8 8 8 9 8 8 8 10 11 13
13 10 10 10 8 7 7 7 7 7 8 10 9 11 12 13 13 13 13 13 13 13 13 13 12 13 12 11 11 11 10 8 8 8 8 8 8 9 6 7 6 6 6 12
9 9 9 9 8 7 7 8 8 10 11 12 11 11 12 13 13 13 13 13 13 13 12 12 13 12 12 11 11 10 9 8 7 8 8 9 9 8 11 8 6 6 5 5
7 8 9 8 8 7 7 10 10 11 11 11 11 11 12 13 13 13 13 12 12 12 12 13 12 12 11 11 10 9 8 8 7 7 7 7 8 9 10 12 13 13 9 7
7 7 7 7 8 11 10 11 12 11 11 11 12 13 13 13 13 13 12 12 12 12 12 12 12 12 10 10 9 8 7 6 7 7 8 8 9 9 12 11 11 13 15 12
7 8 8 10 12 12 11 11 11 12 12 12 13 13 12 12 12 12 11 11 12 13 12 14 13 11 9 8 7 7 6 6 6 7 8 8 12 12 10 10 9 10 13 13
11 12 13 12 11 11 11 10 11 11 12 13 13 13 12 13 14 12 11 13 15 15 14 13 12 10 8 8 7 7 6 6 6 8 8 8 9 11 11 10 9 8 11 16
11 11 10 10 11 11 11 12 12 13 13 12 14 15 16 15 13 13 14 14 16 15 13 11 11 9 8 8 8 8 7 6 6 7 8 8 8 10 12 11 10 10 10 14
10 10 10 10 10 11 11 12 12 12 14 14 15 14 14 15 14 14 15 16 15 15 10 10 9 10 8 7 8 7 6 6 6 7 7 11 16 13 13 11 9 10 11 11
11 11 11 11 12 13 13 12 13 12 12 14 15 16 14 13 16 16 17 14 11 9 9 9 10 9 8 7 7 7 6 5 6 8 9 12 14 14 12 11 12 12 11 10
13 12 12 12 12 13 13 13 13 13 12 15 15 14 15 13 15 16 13 11 9 10 9 10 10 9 8 7 7 6 5 5 6 8 9 9 8 9 10 10 11 10 9 8
12 12 14 14 13 12 12 12 12 13 14 15 17 17 12 11 11 13 11 10 8 11 11 11 9 10 9 9 6 6 5 5 5 6 7 7 7 8 8 8 9 8 8 8
11 11 11 13 14 11 12 13 15 15 14 13 13 12 12 10 11 11 8 8 10 11 11 11 11 10 9 7 6 6 5 7 6 5 5 7 7 7 7 7 7 7 7 7
11 11 11 11 14 13 11 9 9 9 12 11 11 11 11 10 10 10 8 6 8 12 10 8 8 8 7 8 7 6 5 5 5 5 6 7 6 7 6 7 7 7 7 7
11 10 10 10 10 10 9 9 10 9 9 9 9 9 10 10 9 8 13 10 11 9 8 9 8 10 10 11 14 13 12 11 11 11 10 9 8 6 6 6 7 7 7 6
10 10 10 9 10 10 10 10 10 9 8 8 7 7 7 9 9 9 7 7 9 9 9 12 13 15 17 17 18 17 16 15 15 14 14 14 13 12 10 8 5 6 6 6
10 11 11 11 11 11 11 11 11 10 9 9 8 7 7 7 6 6 6 7 8 13 11 12 14 16 17 17 17 17 17 17 17 15 15 15 15 14 13 12 9 6 5 5

GFSNGP_con_lsi_021.txt.gz
Lid_Strength_Index
12 11 11 12 11 11 12 12 13 12 12 10 8 8 7 7 7 8 8 8 8 8 8 7 7 9 8 9 8 7 8 8 8 8 7 6 6 6 6 6 5 5 5 4
13 12 12 12 12 11 11 11 11 11 11 8 8 7 8 8 8 8 8 8 8 8 8 8 8 8 9 8 8 8 9 9 8 8 7 7 6 6 6 6 6 5 5 5
15 14 14 15 12 11 11 10 10 12 9 8 8 8 7 7 7 7 8 7 8 8 7 7 8 8 9 9 9 9 9 9 9 8 7 7 6 7 6 6 5 5 5 5
15 16 17 12 10 10 11 10 10 10 9 8 8 8 7 6 7 7 7 7 8 7 7 8 9 9 9 9 9 10 10 9 8 8 7 7 7 7 7 6 5 5 5 6
15 16 14 12 12 11 11 11 9 9 9 9 8 7 7 7 6 6 6 6 7 7 9 9 10 9 10 9 10 10 10 9 8 8 8 8 8 8 7 6 5 5 5 6
17 16 17 12 11 8 8 13 8 8 9 9 8 11 8 6 6 6 6 7 9 10 11 10 10 9 10 10 10 10 9 9 9 8 9 8 8 8 6 6 6 5 6 6
18 15 14 11 9 8 13 11 9 8 8 9 8 7 6 6 6 6 8 9 10 11 10 10 10 10 10 10 10 10 9 9 8 9 9 8 8 7 6 6 6 6 7 6
17 16 16 10 8 11 8 8 8 7 7 7 6 7 7 7 8 10 11 12 11 11 11 11 10 10 11 11 10 9 9 9 9 9 9 9 8 6 6 6 6 7 7 7
12 12 9 8 7 7 7 7 7 6 6 6 7 7 7 8 11 11 11 11 11 11 11 11 11 10 11 10 10 10 9 9 10 9 8 8 7 6 7 6 6 6 6 6
11 9 10 8 7 7 6 6 6 6 5 6 6 7 8 11 12 11 11 12 11 11 12 11 11 11 10 10 10 10 10 10 9 9 9 7 6 7 6 6 6 6 6 6
11 9 8 8 7 6 6 6 6 5 5 6 6 7 11 12 12 12 12 11 12 12 12 12 11 10 10 10 9 10 10 9 8 8 9 7 6 6 6 5 5 5 5 6
11 7 8 7 7 6 6 6 6 6 7 7 7 10 10 11 12 12 12 12 12 12 12 11 11 11 10 10 10 10 10 9 8 8 7 7 7 6 6 6 6 6 5 6
8 7 7 6 7 6 6 6 6 7 9 10 10 10 11 12 12 12 12 12 12 12 11 11 11 11 10 10 10 10 10 9 7 7 6 7 7 6 6 5 5 5 5 5
6 6 7 6 6 6 8 10 10 10 10 10 10 10 12 12 12 12 12 11 11 11 11 11 11 10 10 10 10 10 9 8 7 6 6 6 6 5 5 6 6 5 6 6
7 6 7 9 10 11 10 10 10 11 11 11 11 12 12 12 12 12 12 12 12 12 11 11 11 10 9 9 9 8 7 7 6 6 6 6 5 5 5 6 6 6 5 7
9 10 11 11 11 10 10 11 12 12 12 13 13 12 11 11 11 11 11 11 12 12 11 11 12 10 9 8 8 7 6 6 6 6 6 5 5 6 6 6 6 6 6 6
10 12 12 11 11 11 11 11 11 12 12 12 12 12 11 11 12 12 11 12 12 12 12 12 11 8 8 7 6 6 6 6 6 6 6 5 5 6 6 6 6 6 6 5
10 10 10 11 11 12 12 11 11 11 11 11 12 12 12 12 12 12 12 11 12 12 11 10 9 8 8 6 6 6 6 6 6 6 6 5 5 5 5 6 6 6 5 5
10 11 10 10 10 10 10 10 11 11 12 12 12 11 11 12 12 11 11 12 12 11 8 7 8 7 7 6 6 6 5 6 6 6 5 5 5 5 5 6 6 6 6 6
11 10 11 11 11 11 12 11 11 11 10 11 12 12 11 11 11 12 12 11 8 7 7 7 6 7 6 6 6 5 5 6 6 6 5 5 5 6 5 7 6 6 6 6
12 12 11 11 11 12 12 12 12 11 10 12 12 11 12 11 10 11 9 8 6 6 6 7 7 6 5 6 6 6 6 6 6 5 5 5 5 6 5 5 5 6 6 6
11 11 13 13 12 11 11 10 10 12 12 12 11 12 11 8 8 8 8 8 5 8 6 6 6 7 6 8 6 6 6 5 5 5 5 5 5 5 5 4 5 4 5 5
9 10 11 11 12 10 10 9 10 9 9 9 9 9 9 8 8 8 7 5 6 6 7 6 7 9 9 6 5 5 6 6 6 6 5 5 5 4 4 4 4 4 4 4
10 10 10 10 11 10 10 9 9 9 10 10 9 10 9 9 8 6 6 6 6 5 6 6 6 6 6 6 6 8 9 9 10 10 10 10 9 9 8 6 5 4 4 4
10 10 10 11 11 11 11 11 10 10 10 9 9 8 7 6 7 6 6 6 6 6 7 6 7 8 8 9 10 11 12 12 12 12 12 12 12 11 11 10 10 9 8 5
11 11 11 11 11 12 12 13 13 12 12 12 11 10 9 8 7 6 6 6 5 5 6 7 9 10 11 12 12 13 13 13 14 14 14 13 13 13 13 12 12 11 11 9
12 13 13 13 13 13 14 15 15 16 14 13 14 12 11 10 9 8 8 7 6 6 8 11 11 13 13 14 14 14 14 14 15 15 15 15 15 15 14 14 13 12 11 10

GFSNGP_con_lsi_024.txt.gz
Lid_Strength_Index
10 10 9 9 9 9 9 9 11 9 9 8 6 6 5 5 5 5 5 4 4 4 4 4 5 6 6 6 5 6 7 6 6 5 5 6 5 5 5 5 5 5 5 5
11 10 9 10 9 8 9 8 9 8 9 6 5 5 5 5 5 5 5 4 4 4 4 5 6 6 7 6 6 6 7 6 6 6 6 6 6 6 6 6 5 5 5 5
13 11 11 14 10 9 8 8 8 10 7 5 6 6 5 5 5 5 4 4 4 4 4 5 5 7 5 6 6 7 6 7 7 7 7 7 6 6 6 6 5 5 5 5
13 13 19 10 8 8 8 7 7 7 6 6 6 5 5 4 4 4 4 4 4 4 5 5 5 5 6 7 7 7 7 8 8 7 7 7 7 7 6 6 6 5 5 5
16 13 11 10 10 10 9 9 6 7 6 6 6 5 5 4 3 3 3 3 3 3 5 5 6 6 7 7 7 8 8 9 8 7 8 7 7 7 6 6 6 5 4 4
13 18 19 9 9 7 7 10 7 6 6 6 6 9 6 4 3 3 3 2 3 5 6 7 7 7 7 8 8 9 9 8 8 7 8 8 7 6 6 6 6 5 5 4
13 16 11 8 8 6 12 10 6 5 5 6 7 5 4 3 3 3 3 4 5 7 7 8 8 7 8 9 10 9 8 8 8 8 8 7 6 6 7 6 6 5 5 5
13 17 17 7 7 10 6 5 5 5 5 5 4 4 4 4 3 3 4 6 7 8 8 8 7 8 9 10 9 8 9 8 8 8 7 7 7 7 6 6 6 6 6 5
10 9 7 6 5 4 4 5 4 4 4 4 4 4 4 4 5 6 7 9 9 9 10 9 9 9 10 10 9 9 9 9 8 7 7 7 7 7 7 6 6 6 6 5
9 7 6 6 5 5 4 4 4 3 3 3 4 4 4 5 7 8 8 9 10 10 10 10 10 10 9 9 9 9 9 8 7 7 7 7 7 8 7 6 6 6 5 5
9 6 6 5 5 5 4 4 4 3 3 4 4 4 4 6 8 9 10 10 10 10 10 11 10 9 9 9 9 9 8 8 8 7 7 7 7 7 6 5 5 5 5 5
9 6 6 5 4 4 4 4 4 4 4 4 4 4 6 8 9 10 12 11 10 10 10 10 10 10 9 9 9 9 9 9 8 7 6 7 6 6 7 7 7 6 6 5
7 5 5 4 4 4 4 6 6 6 6 7 7 8 9 12 12 12 11 11 11 11 10 10 10 10 10 9 9 10 9 9 8 7 7 6 6 6 6 5 6 6 5 5
5 4 6 5 7 7 7 7 7 8 8 9 10 11 11 12 11 11 11 10 10 10 10 10 11 11 9 9 9 9 8 9 7 6 5 5 5 5 5 5 5 5 5 5
7 6 6 7 7 7 6 8 10 11 12 12 12 12 11 12 11 10 10 10 10 10 10 10 10 10 8 8 8 7 7 6 5 5 4 5 5 5 5 4 5 5 4 5
8 7 7 8 9 10 11 11 12 12 11 11 10 10 9 9 9 9 9 9 10 10 9 9 9 9 7 7 7 6 5 6 6 5 5 4 4 5 5 4 5 4 5 5
9 11 11 12 12 11 11 11 10 10 9 9 9 9 9 9 9 9 8 8 9 9 8 9 9 6 6 5 4 4 3 4 5 5 5 5 4 5 5 4 4 4 4 3
10 10 10 10 10 10 10 9 9 9 9 9 10 10 10 11 10 8 8 8 9 9 8 7 5 5 5 4 3 3 3 4 4 4 4 5 5 5 4 4 4 4 4 3
9 9 9 9 9 9 9 10 10 10 10 9 10 9 9 9 8 8 8 9 9 8 5 3 6 6 4 4 5 3 3 4 4 4 4 5 5 5 4 4 3 3 4 4
10 10 10 10 10 10 10 9 8 8 8 9 9 9 9 8 7 7 7 7 5 4 3 4 4 4 3 4 5 3 3 5 5 5 5 5 5 5 5 4 4 4 3 3
10 10 10 10 9 9 9 9 9 9 8 9 9 8 8 7 7 7 7 5 4 3 4 5 4 3 2 3 4 2 5 5 5 5 5 5 5 5 4 4 4 4 4 3
9 9 9 9 8 8 8 8 8 9 9 8 8 8 8 7 7 7 6 6 4 6 4 4 3 3 3 6 3 4 5 5 4 4 5 5 5 5 5 4 4 3 3 3
8 8 8 9 9 8 8 9 9 9 10 9 9 9 9 8 8 9 9 6 6 5 6 5 5 5 5 5 4 4 5 5 5 5 6 6 6 6 6 6 5 4 4 3
8 9 9 9 10 10 11 10 10 9 9 9 8 9 9 8 7 7 6 6 7 6 6 5 5 5 5 5 4 4 5 6 7 7 7 9 8 8 8 8 8 7 6 6
10 10 10 10 10 10 11 11 10 10 11 10 10 10 10 9 10 8 8 7 7 7 6 6 5 5 5 5 6 7 7 8 9 9 9 9 9 10 9 9 9 9 9 8
10 10 10 11 11 11 11 11 12 11 12 12 11 11 11 10 10 10 9 9 8 8 7 7 9 8 8 9 9 10 10 10 10 10 11 11 11 11 11 11 11 10 10 9
11 12 11 11 11 12 13 13 13 13 13 13 14 12 12 12 12 11 11 11 11 11 10 11 11 12 12 12 12 12 12 12 13 13 12 12 12 12 13 13 12 11 10 9

GFSNGP_con_lsi_027.txt.gz
Lid_Strength_Index
8 8 8 8 9 8 9 9 11 9 9 7 6 5 5 4 4 4 4 4 3 3 3 2 3 3 4 5 5 6 6 6 6 5 5 5 6 5 5 5 6 6 6 6
11 9 9 9 8 8 8 8 8 8 8 5 5 4 5 4 4 4 4 4 3 3 3 2 3 3 5 5 5 6 6 6 6 5 6 6 6 6 6 6 6 6 6 6
12 10 10 14 10 8 8 7 7 10 7 5 6 5 5 4 4 4 4 4 3 3 3 2 2 3 5 5 5 6 6 6 6 6 7 7 7 7 7 6 6 6 6 6
12 13 19 9 7 7 8 7 6 6 6 5 5 4 4 3 4 4 3 3 3 2 2 2 1 3 4 5 5 6 6 6 7 7 8 7 7 7 7 6 6 6 5 6
16 12 10 9 8 8 9 9 6 7 6 5 5 5 5 3 3 3 3 2 2 2 2 1 2 3 5 6 7 6 7 7 7 8 8 8 8 8 7 7 6 6 6 6
12 17 19 9 7 6 6 10 6 6 6 6 5 8 6 3 3 3 2 2 2 2 1 2 3 4 6 7 7 8 8 8 8 8 8 8 8 8 7 6 6 7 7 5
13 15 11 7 7 6 11 10 5 5 5 5 6 5 4 3 3 2 2 2 2 2 3 4 4 6 7 7 8 8 8 8 8 8 8 8 8 7 6 6 7 6 6 5
13 16 17 6 6 9 7 4 4 4 4 5 4 4 3 3 3 3 3 3 3 4 5 6 7 7 8 9 8 8 8 9 9 8 8 8 7 7 7 7 7 7 7 6
10 10 6 5 5 4 4 4 4 4 4 4 4 4 3 3 3 3 3 4 5 6 8 8 8 8 9 9 9 9 9 9 9 8 8 7 7 8 7 7 6 6 7 6
9 6 6 5 4 4 4 4 3 3 3 3 4 4 4 3 3 4 5 6 7 8 9 10 9 10 9 9 9 9 10 9 8 8 7 7 7 7 7 7 5 6 6 6
8 6 5 5 4 4 4 3 3 3 3 3 4 4 3 3 5 6 8 8 9 10 10 10 9 9 9 9 9 9 9 8 7 7 7 7 7 6 5 4 4 5 5 5
9 6 6 5 4 4 4 4 4 4 4 4 4 3 4 7 8 9 10 10 11 10 10 10 9 9 9 8 9 9 9 8 8 8 8 7 6 6 5 6 6 6 6 5
6 4 4 4 5 5 5 6 5 6 5 7 7 7 8 10 11 11 11 10 10 10 9 9 9 9 9 9 9 10 10 9 8 8 7 6 6 5 6 4 5 6 5 5
5 4 6 5 6 5 5 6 8 9 9 9 10 10 11 11 11 10 10 10 8 8 8 8 8 8 8 8 8 8 8 9 7 5 5 5 5 4 4 4 4 4 5 5
6 5 5 5 5 7 7 8 10 11 11 11 10 10 10 10 10 9 8 8 8 8 8 7 8 8 6 6 7 6 6 4 4 4 4 4 4 4 4 4 4 4 3 4
6 6 7 8 9 9 9 10 10 10 10 9 9 9 9 8 8 7 7 6 8 8 7 9 8 6 5 4 4 3 3 5 5 4 4 4 4 4 4 4 4 4 4 3
10 11 11 10 10 9 9 9 9 9 9 9 9 9 9 8 7 7 6 6 7 8 7 7 6 4 3 3 3 3 3 3 5 4 4 4 4 4 4 4 4 4 4 3
8 9 9 9 10 10 9 9 9 10 10 9 10 10 10 10 8 7 6 6 7 7 5 4 3 3 3 2 2 2 3 3 3 4 3 3 3 3 4 4 4 4 4 2
8 9 9 9 9 9 10 10 9 9 9 9 10 10 9 9 7 7 6 7 7 6 4 2 5 5 3 3 4 3 2 3 3 4 3 3 3 4 4 4 4 4 3 3
9 9 10 10 10 9 10 9 7 7 7 8 9 9 9 8 8 7 7 7 5 4 3 4 4 3 3 3 5 3 3 3 3 4 5 4 4 4 4 4 4 4 4 4
10 10 10 10 10 9 9 9 9 9 8 9 9 10 9 8 7 7 7 7 6 5 6 6 6 6 5 4 4 3 3 4 4 4 4 4 4 4 4 4 4 4 4 4
9 10 10 8 8 8 8 9 9 10 10 10 10 9 9 8 8 7 7 7 6 7 6 6 5 6 6 6 5 5 4 4 4 4 4 4 4 5 5 5 5 5 5 4
8 8 8 9 8 8 9 10 9 10 11 10 10 10 10 9 9 9 9 8 7 8 7 7 7 7 6 6 5 5 5 4 4 4 4 5 5 5 6 6 6 6 6 6
7 7 8 9 9 10 11 10 10 10 10 10 9 10 10 10 9 9 8 9 9 9 8 8 8 9 7 6 5 5 5 5 5 5 6 7 6 7 7 7 7 7 8 8
8 9 9 10 10 10 10 11 10 10 10 10 10 10 10 10 10 10 10 10 10 10 9 10 11 11 9 9 9 9 8 9 8 8 8 8 8 9 8 8 9 9 9 9
9 9 9 10 10 10 11 11 11 10 11 11 11 10 10 10 10 11 11 11 11 12 11 11 11 12 12 12 11 11 11 11 12 12 11 10 11 10 10 11 11 10 10 10
11 10 10 10 10 11 11 11 11 12 11 12 13 11 11 11 12 12 12 12 12 12 12 12 12 13 13 13 13 13 13 13 13 13 13 12 12 12 12 12 12 11 11 11

GFSNGP_con_lsi_030.txt.gz
Lid_Strength_Index
8 8 8 9 9 9 9 9 12 11 9 8 6 6 5 4 4 4 4 4 4 4 3 3 3 2 2 3 4 5 6 6 6 5 5 6 6 6 6 6 6 6 7 7
11 9 9 10 9 8 8 8 9 9 9 6 5 5 5 5 5 5 4 4 4 3 3 3 3 3 3 4 4 4 5 6 6 6 6 6 6 7 7 6 7 7 7 7
14 10 10 14 10 9 8 7 8 10 8 6 6 6 5 5 5 4 4 4 4 3 3 3 3 3 4 4 4 5 5 6 6 5 6 7 7 8 7 7 7 7 7 8
15 13 18 9 6 7 8 8 7 7 7 6 6 5 4 4 4 4 4 3 3 3 3 2 2 4 4 4 5 5 6 6 6 7 7 8 8 8 8 7 8 8 8 8
17 15 11 9 8 8 9 9 6 7 6 6 5 5 5 4 3 3 3 3 3 2 2 2 2 3 4 5 5 6 7 7 7 8 8 8 8 8 8 9 8 7 7 7
14 17 19 10 7 6 6 11 6 6 6 6 5 10 7 4 3 3 3 2 2 2 2 2 4 4 4 7 8 8 8 8 8 8 9 9 9 9 9 8 7 7 7 8
14 16 13 7 6 5 12 12 5 5 5 5 7 6 4 3 3 3 3 3 2 2 3 4 4 6 8 8 8 8 8 8 9 9 9 8 8 9 8 7 8 8 9 8
14 17 18 6 6 10 7 5 5 5 5 5 5 4 4 3 3 3 3 3 4 7 8 7 7 7 9 9 9 8 9 9 9 9 8 8 9 8 8 8 9 9 9 8
11 12 6 4 5 4 4 4 4 5 4 4 5 4 4 4 3 3 3 5 7 8 9 9 8 9 10 9 9 9 9 9 9 9 8 7 8 8 9 9 9 8 7 7
9 6 6 5 4 4 4 4 4 4 4 4 5 4 4 4 5 5 7 8 8 9 10 10 10 9 9 9 8 8 9 9 9 9 9 8 8 8 9 9 8 7 7 7
8 6 6 5 5 4 4 4 4 3 4 5 4 4 5 7 8 9 9 9 9 10 10 10 10 9 9 8 8 9 8 8 8 9 8 8 8 7 7 6 6 7 6 6
11 7 7 6 5 4 5 5 5 6 6 7 7 7 8 9 10 10 11 10 11 10 10 10 9 8 8 7 7 8 9 8 9 9 9 8 7 6 5 6 5 5 5 6
7 5 5 4 5 5 7 7 7 7 8 9 8 9 10 11 11 11 10 10 10 10 9 9 8 7 7 6 7 9 9 9 9 8 7 7 7 6 7 5 4 4 5 5
5 4 6 5 7 6 8 8 8 9 9 9 9 9 10 11 10 10 10 9 9 8 8 7 7 7 6 6 7 8 8 7 6 6 6 6 6 6 6 6 6 6 5 5
5 5 6 6 7 8 8 8 10 10 9 9 9 10 9 10 10 9 8 8 7 7 7 7 7 6 5 4 5 5 5 5 5 5 6 6 6 6 5 6 5 5 5 6
6 6 7 8 9 9 9 9 10 10 10 10 10 10 10 9 9 9 7 6 8 8 7 9 9 7 5 4 4 4 4 5 6 5 6 6 6 6 6 6 5 5 5 5
9 10 10 10 10 9 9 9 10 10 10 11 11 12 11 10 9 8 7 7 8 9 8 8 7 4 4 3 3 4 4 4 5 5 5 5 5 5 5 5 5 5 5 5
8 8 9 9 9 9 10 10 11 11 11 12 13 12 11 10 10 9 9 8 9 8 7 5 6 5 4 3 3 4 4 4 5 5 5 5 5 5 5 5 5 5 5 5
8 9 8 9 9 10 11 11 11 11 12 12 12 11 10 10 10 10 9 9 9 8 7 6 7 6 6 5 6 5 6 5 5 5 4 5 6 5 5 5 5 5 5 5
9 9 10 10 10 11 12 11 11 11 11 11 11 12 12 12 11 12 11 10 8 8 8 7 7 7 7 6 7 7 7 7 6 6 4 5 6 6 5 6 5 4 4 5
10 10 11 11 12 12 12 12 12 11 11 13 13 13 13 11 11 11 10 10 8 9 9 9 9 8 8 8 8 8 8 7 6 6 5 5 4 5 5 4 4 4 4 5
11 11 12 11 11 11 11 10 11 12 12 14 14 14 14 12 12 11 11 10 10 10 10 10 9 12 12 12 9 8 8 7 6 6 5 5 4 5 6 7 6 6 6 6
10 11 11 11 10 10 10 11 12 12 14 14 14 13 12 12 11 12 12 10 10 11 11 10 12 14 14 11 10 10 9 9 10 9 8 7 6 6 7 7 7 7 7 8
9 9 9 9 10 10 11 11 11 11 13 12 12 13 12 11 11 10 10 11 13 13 12 12 13 14 14 12 12 12 12 12 12 12 11 10 10 9 9 9 9 9 10 10
9 9 9 9 10 11 11 12 11 11 11 11 11 11 10 10 11 11 11 11 12 13 12 12 13 15 14 14 13 14 14 14 14 15 14 13 13 12 12 12 12 12 12 11
9 9 11 11 11 11 12 12 12 11 12 11 11 11 10 10 10 11 12 12 12 13 13 13 13 14 14 14 14 14 15 15 15 16 15 15 14 14 14 13 13 13 13 12
11 10 10 11 12 12 12 12 12 12 11 12 13 12 10 11 11 12 13 12 13 13 13 13 13 13 14 14 14 15 15 16 16 16 16 16 15 15 15 14 14 13 13 13

GFSNGP_con_lsi_033.txt.gz
Lid_Strength_Index
10 9 9 9 10 10 11 11 14 12 11 9 10 9 8 7 7 7 6 6 6 6 5 5 4 4 4 5 6 7 7 7 6 5 6 6 7 7 7 8 8 8 7 8
13 10 10 11 10 10 10 10 11 11 11 9 8 8 8 7 7 7 6 6 5 5 5 5 4 4 5 6 7 6 7 6 6 6 6 7 7 8 8 8 8 8 9 8
16 12 12 16 12 11 10 9 10 13 10 9 9 8 8 8 7 6 6 6 5 5 4 4 4 4 6 7 6 7 6 6 6 6 7 8 8 8 9 9 9 9 8 8
17 16 20 11 8 9 10 9 10 10 10 9 9 8 7 7 7 6 6 6 6 5 5 4 5 6 6 6 7 6 6 7 7 8 9 8 9 9 9 8 9 9 8 8
17 17 13 10 9 9 10 11 9 9 9 8 8 8 7 5 5 6 6 5 5 5 4 5 6 6 7 7 6 8 8 9 9 8 9 9 9 9 9 9 9 8 7 7
16 18 20 12 9 7 8 14 8 7 8 8 8 12 9 5 5 5 5 7 8 7 6 7 7 8 9 9 10 9 9 9 9 9 9 9 9 9 8 9 8 8 8 8
18 18 14 9 8 7 15 13 7 7 7 7 9 8 6 5 5 5 7 9 9 9 9 9 9 9 10 10 10 10 9 9 8 8 8 8 8 8 9 9 9 9 9 9
15 17 18 7 8 11 9 7 7 7 7 7 6 5 5 5 5 7 10 10 9 10 10 10 9 10 10 11 10 9 9 9 8 8 8 8 8 8 8 9 10 9 9 8
13 13 8 7 8 7 7 7 6 6 6 5 6 6 5 8 9 10 10 10 10 10 10 10 10 10 11 10 9 9 9 9 8 7 7 7 8 9 9 9 10 9 8 9
11 9 8 7 6 5 5 6 5 7 7 6 7 9 10 10 10 10 11 10 9 10 11 11 10 10 9 9 9 9 9 8 8 8 8 8 8 8 8 9 10 8 8 8
10 8 7 7 6 6 6 6 8 8 8 8 9 10 10 11 11 10 10 9 10 10 11 11 10 11 10 9 8 9 8 8 9 9 8 8 7 7 8 8 8 9 9 8
13 8 8 8 7 7 8 8 8 9 10 9 9 10 10 11 11 10 11 10 11 11 11 10 10 10 9 8 8 9 10 10 11 11 10 8 8 8 6 6 6 5 5 7
8 6 7 8 8 8 9 9 9 9 9 11 11 11 11 12 11 11 11 11 11 11 11 11 10 9 8 8 9 10 10 10 10 9 9 9 9 9 9 8 5 5 5 4
7 7 9 8 10 9 9 10 9 10 10 11 11 11 12 12 11 11 11 11 11 11 11 10 9 9 8 8 9 9 9 9 9 8 8 8 8 8 9 9 9 8 6 4
8 7 8 9 9 9 9 10 10 11 11 11 11 12 11 12 12 11 11 11 11 11 9 9 10 10 8 8 8 8 9 9 8 7 7 6 7 8 8 8 9 8 7 8
9 9 9 10 10 10 10 11 11 11 11 11 12 12 12 12 11 11 11 11 12 12 10 11 10 9 8 7 6 6 6 8 8 7 7 6 6 7 7 8 8 7 7 7
11 12 11 11 11 10 10 11 11 11 12 13 14 14 13 14 13 13 12 11 11 11 10 10 10 8 8 7 7 7 7 6 7 6 6 6 7 6 6 7 8 7 7 6
9 9 9 9 10 11 12 12 12 13 14 14 13 13 14 14 14 13 12 12 14 12 10 10 11 10 9 8 8 8 9 9 9 9 8 7 6 6 6 6 7 9 7 7
9 9 9 10 10 11 11 12 13 14 14 14 15 16 16 16 12 12 12 15 14 14 12 12 11 11 10 10 11 10 10 11 10 10 9 9 8 7 6 5 7 9 9 7
11 11 11 12 12 12 13 13 14 14 14 16 17 17 15 16 17 17 16 14 13 13 13 12 11 13 12 12 13 12 10 11 11 11 9 8 8 7 5 6 7 8 6 4
12 12 13 13 14 14 15 15 15 15 15 17 17 19 19 17 17 19 16 15 13 14 13 12 13 14 14 14 12 12 13 13 12 12 11 11 10 8 6 6 6 7 10 9
11 12 13 13 14 14 14 14 15 15 15 17 20 20 19 15 17 16 18 15 13 17 14 12 13 17 15 16 14 15 15 14 15 15 14 13 12 11 11 10 9 9 10 9
12 12 12 13 14 14 14 14 16 16 17 18 19 18 17 15 14 17 17 13 13 15 13 14 18 19 19 16 16 17 16 16 17 17 16 15 14 13 14 14 13 12 12 12
12 13 13 13 13 13 13 13 12 13 17 15 18 20 15 18 19 13 13 16 18 19 19 15 18 19 21 20 17 18 17 17 17 18 17 16 16 16 16 15 15 14 13 13
13 13 12 12 12 13 13 13 13 13 13 13 14 13 13 13 18 16 18 18 17 18 20 19 19 19 23 23 22 19 19 18 18 18 18 18 18 18 17 17 16 15 14 13
12 13 13 13 13 14 14 13 14 15 15 17 17 20 17 15 16 16 18 18 17 18 19 22 22 20 22 23 23 23 21 20 18 18 20 19 19 19 18 17 16 15 15 14
12 12 13 14 13 14 14 15 17 17 17 21 20 19 15 16 20 17 21 22 22 21 22 22 23 21 19 20 23 21 22 22 21 19 23 21 20 19 18 17 16 15 15 15

GFSNGP_con_lsi_036.txt.gz
Lid_Strength_Index
11 10 10 11 11 11 12 12 14 12 12 10 10 10 10 9 8 7 7 7 7 7 7 6 6 5 5 6 7 7 7 7 7 7 7 6 7 8 8 8 8 8 9 9
14 10 11 13 11 12 11 11 11 11 12 10 10 9 9 8 8 8 8 7 6 5 6 6 6 6 5 6 7 7 7 7 6 7 8 8 8 8 9 8 8 9 8 8
16 13 13 16 13 11 11 11 11 14 12 10 10 10 10 9 8 8 8 7 6 6 5 5 5 5 6 7 7 7 7 7 7 7 7 8 8 8 9 9 9 9 8 8
17 17 20 12 9 9 11 10 10 10 10 9 9 9 8 8 8 8 7 7 7 6 5 5 6 7 7 6 7 7 7 7 7 8 9 9 9 9 9 9 9 9 9 8
18 18 13 11 10 10 11 12 9 10 9 9 8 8 8 7 7 7 7 7 7 7 7 7 7 7 7 8 10 10 9 9 9 9 9 9 9 9 8 9 9 9 8 8
17 19 20 12 9 8 9 14 8 8 9 9 9 12 9 6 7 9 9 9 9 9 9 10 9 9 10 11 11 11 10 10 9 9 9 9 8 8 9 8 8 8 8 8
21 20 16 10 8 8 15 14 8 8 8 8 9 9 7 8 9 9 10 10 10 10 11 10 10 10 11 11 10 9 9 8 8 8 8 8 8 8 9 9 9 9 9 8
16 19 17 7 9 11 10 8 8 7 7 7 7 7 8 10 10 10 11 11 10 11 11 10 9 10 10 10 9 9 8 8 9 9 8 8 9 9 9 9 10 9 11 9
13 13 9 8 8 7 7 7 7 7 6 6 7 10 10 11 11 11 11 11 10 10 10 10 9 9 10 11 10 9 9 10 10 8 8 8 10 10 10 10 11 10 9 10
11 9 9 7 7 6 6 8 8 8 8 9 10 10 11 11 11 11 11 10 10 11 11 11 10 10 11 10 10 11 11 10 9 9 9 10 10 10 10 11 11 9 9 9
11 9 8 8 8 8 8 9 9 9 9 10 10 11 11 11 11 11 11 10 10 11 11 11 11 11 11 11 10 11 10 9 10 10 10 10 9 9 9 9 9 9 9 9
13 8 9 9 8 8 9 9 10 10 11 10 11 12 12 12 12 12 11 11 11 11 12 12 11 12 11 11 10 10 10 11 12 12 11 10 10 9 7 7 6 6 6 8
9 8 9 9 9 9 10 10 11 11 11 12 12 12 11 12 12 11 12 12 12 12 12 12 12 12 11 10 9 10 11 11 11 11 11 10 10 9 9 6 6 5 5 5
9 9 11 10 12 11 11 11 10 11 11 11 12 12 12 12 12 12 12 12 12 12 12 13 13 12 10 9 9 10 10 10 10 10 10 9 9 8 7 8 7 7 7 6
10 9 10 11 11 11 11 11 12 12 12 13 12 13 13 13 13 13 12 13 13 13 13 12 12 11 9 9 9 9 9 9 9 8 8 8 7 7 6 6 6 6 7 9
11 11 11 12 12 12 11 12 12 13 13 13 14 13 12 12 13 13 14 13 14 13 13 13 13 11 11 10 11 10 11 11 11 11 10 9 9 8 7 7 6 6 7 7
13 14 13 13 13 12 12 12 12 13 14 14 14 13 13 14 15 15 14 14 13 14 13 13 14 12 12 12 13 13 13 12 13 11 11 10 10 10 9 8 8 6 6 6
10 11 11 11 12 12 13 13 14 14 14 13 14 16 17 17 15 15 16 16 16 15 14 13 13 14 14 14 14 14 13 12 11 11 11 11 10 10 9 9 9 8 7 7
10 11 11 11 11 12 13 14 14 14 14 16 17 17 17 18 15 16 16 17 17 16 15 14 14 15 15 14 14 13 13 13 13 12 12 13 13 12 12 10 8 7 6 6
11 11 11 12 12 14 15 15 14 15 15 17 18 18 17 19 20 18 16 16 16 15 14 15 15 16 15 15 15 14 15 15 16 16 16 15 15 14 13 13 13 10 8 8
12 13 13 14 14 14 15 15 15 16 17 19 19 20 20 18 17 19 17 16 15 15 14 16 16 16 15 16 15 17 17 18 19 18 18 17 17 16 15 15 14 14 13 12
13 14 14 15 15 15 15 15 15 17 18 20 21 21 19 15 18 17 19 16 15 20 16 15 15 20 17 19 16 20 18 18 19 19 19 18 18 18 18 17 16 15 15 15
13 14 14 15 15 15 15 16 17 18 19 19 19 18 16 15 15 18 18 15 15 18 15 17 21 22 22 24 24 25 24 21 21 20 19 20 19 19 19 18 18 17 16 16
13 13 14 14 14 15 16 16 16 16 17 16 19 20 15 18 20 15 15 19 22 22 22 21 22 22 24 26 26 27 26 26 23 24 21 23 20 21 20 19 19 18 17 16
13 13 14 15 16 16 15 14 14 13 14 15 15 15 14 14 19 18 21 20 19 20 22 23 23 22 26 28 28 28 27 28 27 23 26 24 22 22 22 21 20 18 17 17
14 16 16 15 15 14 14 14 16 15 16 19 18 23 21 17 16 18 21 22 20 21 22 25 27 26 27 25 27 28 27 26 27 23 28 27 24 24 23 21 20 19 18 17
16 16 15 15 14 14 15 16 18 18 19 23 22 22 16 18 21 20 25 27 26 25 27 26 28 26 26 24 22 25 27 28 28 26 31 30 28 26 24 21 20 19 18 18

GFSNGP_con_lsi_039.txt.gz
Lid_Strength_Index
12 12 11 11 11 12 13 13 15 13 13 11 10 11 10 10 9 7 7 7 8 8 8 7 7 6 6 7 7 8 8 8 8 8 7 7 8 9 8 8 8 8 8 8
14 12 12 12 11 12 12 12 13 13 13 10 11 11 10 9 9 9 9 9 8 7 6 6 6 6 7 7 7 8 8 8 7 7 7 8 9 9 9 9 9 8 8 8
16 14 14 16 13 11 12 11 11 14 12 11 12 11 10 10 9 9 9 8 7 7 5 5 6 6 7 8 9 9 8 7 7 7 8 9 9 9 9 9 9 9 9 10
17 16 20 12 10 10 11 12 12 11 11 11 10 10 10 9 9 9 8 8 7 7 6 7 7 7 8 8 8 8 8 7 8 9 10 9 9 9 9 8 9 10 10 9
17 17 14 12 11 11 12 13 10 11 10 9 8 9 9 7 8 9 9 10 10 10 9 8 8 7 9 10 11 11 11 10 10 9 9 9 9 9 8 9 10 9 9 9
18 19 20 13 10 9 9 15 9 9 9 9 10 13 10 8 9 10 10 10 11 10 10 10 10 10 11 11 11 12 10 9 9 8 9 9 9 9 10 9 9 9 9 9
20 20 16 12 9 9 14 14 9 9 9 9 10 10 10 10 11 10 11 11 11 11 12 11 10 10 11 11 11 9 7 7 7 8 8 8 10 10 10 10 10 10 10 10
19 21 18 10 10 12 11 9 8 9 8 8 8 10 10 10 11 11 12 11 11 11 11 11 10 10 10 10 9 8 8 8 9 9 10 10 10 9 10 10 11 11 13 11
14 15 11 9 9 8 8 8 8 7 7 8 10 11 11 11 11 12 12 12 11 11 11 10 10 10 11 10 10 10 10 11 11 11 11 10 10 10 11 11 12 11 11 11
11 10 9 8 8 8 7 8 8 7 8 9 11 11 11 11 11 11 12 12 12 11 11 11 10 10 10 10 11 12 12 12 12 12 11 10 10 10 11 12 12 10 10 10
12 10 9 9 9 10 10 9 10 10 10 10 11 11 11 12 12 12 12 11 11 11 12 11 11 11 11 12 12 12 12 12 12 12 11 10 10 10 10 10 9 9 9 9
13 9 9 9 9 9 10 10 10 11 11 11 11 12 12 12 12 12 12 11 11 11 12 12 13 13 13 12 13 13 13 13 13 12 12 11 11 11 8 8 8 7 6 7
9 8 9 10 10 10 11 11 11 11 12 12 12 12 12 13 13 12 12 12 13 14 14 14 14 14 13 12 13 13 13 12 11 11 11 11 10 10 10 8 6 6 5 5
10 10 12 11 12 11 11 11 11 12 12 12 12 12 13 14 13 14 14 14 13 13 13 14 14 15 14 13 13 13 11 11 11 11 11 11 11 10 10 9 9 7 5 5
11 10 11 12 12 12 12 12 13 14 13 13 13 14 14 14 14 14 14 14 13 13 15 16 16 16 14 14 14 13 13 13 13 14 14 14 13 12 11 10 10 9 8 7
12 12 12 13 13 13 13 14 14 15 14 14 14 14 14 14 15 15 14 13 14 16 17 19 16 15 15 15 15 14 14 14 15 14 13 13 12 12 11 11 10 10 10 9
14 14 14 14 14 14 14 14 14 15 15 14 14 15 15 15 15 15 15 15 17 17 17 17 17 16 15 15 15 15 15 15 15 14 14 13 12 13 12 13 14 12 10 8
10 11 11 12 13 13 14 14 14 15 15 15 16 18 18 17 16 17 17 17 19 19 17 17 17 16 16 15 15 15 16 16 16 16 15 15 15 14 14 14 14 14 14 12
10 11 11 12 12 13 14 15 15 14 15 16 16 17 17 17 16 17 18 21 21 19 17 16 16 16 16 16 17 17 18 18 18 16 17 17 17 17 16 17 16 15 14 14
12 12 12 13 13 14 15 14 15 15 16 16 17 18 18 19 19 20 19 20 19 17 15 16 17 17 17 17 19 17 18 20 19 19 19 19 20 20 19 18 17 17 16 15
13 13 14 15 15 15 15 15 16 17 16 18 18 19 19 19 20 21 20 19 17 16 15 17 18 18 18 19 17 20 21 23 23 21 22 22 22 20 21 21 20 18 17 16
14 14 15 15 15 16 15 16 17 18 18 20 21 20 20 19 20 20 21 17 16 21 17 17 17 23 19 22 18 25 21 21 22 23 23 23 23 22 23 22 21 20 19 18
14 14 15 15 16 16 16 17 18 19 19 20 20 19 18 18 18 19 19 16 16 20 17 20 23 24 24 27 27 28 28 28 27 25 28 27 25 23 24 23 22 22 21 20
14 14 15 15 16 16 17 17 16 17 19 18 20 21 17 19 20 16 17 21 24 25 24 24 24 24 26 29 29 30 30 31 31 28 27 27 29 27 25 25 23 23 22 21
14 15 15 16 16 16 16 16 16 17 17 17 17 15 15 16 20 19 22 22 21 22 24 25 25 25 29 30 30 31 31 32 32 30 32 32 29 28 28 26 25 24 23 22
15 15 16 16 16 16 16 17 17 17 18 20 19 23 19 18 19 19 23 24 22 23 24 28 29 30 30 28 28 30 30 28 31 30 32 32 30 29 29 27 26 24 24 22
16 16 16 17 17 17 17 17 17 17 18 21 21 22 19 21 22 22 27 29 29 28 28 29 30 29 29 31 29 27 28 31 32 30 34 34 32 32 31 28 27 25 24 23

GFSNGP_con_lsi_042.txt.gz
Lid_Strength_Index
12 12 12 12 12 12 13 13 15 14 14 12 11 11 11 11 9 8 7 7 8 7 7 6 6 6 6 8 8 8 8 8 10 9 9 8 8 9 8 9 9 9 8 7
14 12 13 13 12 12 13 13 13 14 14 11 11 11 11 10 9 9 9 9 9 8 7 6 5 5 6 7 8 9 9 10 9 9 9 9 10 10 9 9 7 7 8 8
16 15 14 16 14 12 12 12 11 14 12 12 13 11 11 11 10 10 9 8 8 7 7 6 6 5 6 7 8 9 9 9 8 9 9 9 9 9 9 8 8 9 8 8
18 17 20 13 11 11 11 11 11 12 12 12 11 11 11 10 10 10 9 9 10 10 9 8 8 8 8 8 8 8 9 9 9 9 10 9 9 8 9 8 9 9 10 10
18 18 15 13 12 12 13 13 11 12 11 10 10 9 9 10 10 11 11 11 11 11 11 11 11 10 10 11 10 10 10 10 9 9 9 9 8 8 8 9 10 10 11 11
18 19 20 13 11 10 11 15 11 10 10 10 10 13 11 11 11 11 12 11 11 11 11 11 11 11 11 11 11 11 10 9 8 8 8 8 9 9 10 10 11 11 11 10
21 20 16 12 11 10 15 14 10 9 9 10 11 11 11 11 12 11 11 11 11 12 12 12 11 11 11 10 10 9 8 7 8 8 8 8 9 11 11 12 12 12 11 10
19 20 18 11 11 13 11 10 9 9 9 9 11 11 11 11 12 12 12 12 11 12 12 11 11 10 11 11 10 8 8 9 9 10 10 11 12 12 12 13 13 12 13 11
14 14 11 11 11 10 9 10 9 9 8 9 11 11 11 12 12 12 12 12 12 12 12 11 11 11 11 11 10 10 11 11 12 12 12 12 13 13 13 13 14 12 11 11
13 11 10 10 10 9 8 8 8 8 8 9 12 11 12 12 12 12 13 13 12 12 13 13 12 11 11 11 11 12 13 13 13 13 13 13 13 13 13 13 12 11 11 11
13 11 10 9 9 9 10 9 10 10 10 11 11 12 12 12 12 13 13 13 12 12 12 13 12 13 12 13 13 14 14 14 14 14 14 14 13 13 12 11 11 11 10 10
13 10 9 9 10 9 10 11 10 11 11 11 11 12 12 13 13 13 13 13 12 13 13 14 14 14 14 13 13 14 14 14 15 15 15 14 13 12 9 9 8 8 7 8
10 9 10 10 11 10 11 12 11 11 11 12 12 12 13 14 14 12 13 13 14 14 15 15 16 16 15 15 14 14 15 15 15 16 15 14 14 14 15 13 11 10 9 8
10 10 12 11 12 12 12 12 11 12 12 12 13 13 13 14 14 14 14 14 14 15 16 17 17 16 16 16 15 16 16 16 17 16 16 15 16 15 15 15 16 15 11 9
11 11 11 12 12 13 12 12 13 14 13 14 14 14 14 15 15 15 15 14 16 17 17 17 17 17 17 16 17 17 17 17 16 16 16 16 16 15 15 15 15 15 14 12
13 13 13 13 14 13 13 14 14 14 14 14 14 14 15 15 15 15 14 14 17 18 18 20 19 18 17 17 17 17 17 16 17 16 16 17 17 17 16 15 15 15 15 15
14 15 14 15 14 14 14 14 14 14 15 14 15 15 15 16 15 16 17 17 18 18 18 19 19 18 17 17 18 18 18 17 18 18 18 18 18 17 17 16 17 17 16 16
11 12 12 13 14 14 14 14 15 15 15 15 16 16 17 17 16 17 18 18 18 19 18 19 19 18 18 18 19 18 18 19 19 19 19 19 19 18 18 18 18 18 18 16
12 12 13 13 13 14 15 15 15 15 16 16 16 17 17 17 17 18 19 20 20 19 19 19 18 19 20 19 19 19 20 22 21 20 20 21 22 21 20 21 21 20 19 18
12 12 12 14 14 14 15 15 15 16 16 17 17 17 18 19 19 20 20 20 19 18 18 19 20 20 20 19 21 20 22 24 22 23 24 23 27 27 25 24 22 22 21 20
13 14 14 15 15 15 15 16 16 16 16 17 18 18 18 19 20 20 20 20 19 18 19 20 20 19 19 21 20 24 26 28 27 26 27 29 30 27 27 28 25 24 23 22
15 15 16 16 16 17 17 16 16 17 18 19 19 19 20 20 20 20 21 19 18 21 19 19 19 24 21 23 20 27 23 25 25 27 28 30 31 30 29 29 27 24 24 23
15 15 15 16 16 17 17 18 18 19 19 19 19 19 18 18 18 20 20 18 18 21 18 21 24 26 26 28 29 30 30 30 30 29 33 35 34 33 31 28 27 26 25 24
15 15 15 15 16 17 18 18 17 18 19 18 19 20 18 20 22 19 19 22 24 26 25 24 26 25 28 30 31 32 32 33 33 34 31 32 36 34 32 32 29 27 26 26
15 15 16 16 16 17 17 17 18 17 17 17 17 17 17 18 21 20 22 23 22 22 24 26 26 28 31 32 32 32 32 33 34 34 35 37 34 34 33 32 30 28 27 26
15 16 16 16 17 17 17 17 18 18 19 20 19 20 20 20 20 21 23 24 23 24 24 28 30 32 32 31 31 31 29 28 33 33 35 36 36 33 33 31 30 29 28 27
17 17 17 18 18 18 17 17 18 19 19 19 19 19 20 21 23 22 27 28 29 29 30 30 31 30 30 33 32 30 29 30 33 32 36 38 37 36 34 33 31 30 28 27

GFSNGP_con_lsi_045.txt.gz
Lid_Strength_Index
10 10 10 10 11 11 11 11 13 11 12 9 8 8 7 8 7 6 6 5 5 4 4 3 3 3 3 3 4 5 6 6 7 7 6 6 7 8 7 7 7 7 8 7
11 11 10 11 10 10 11 11 11 11 11 8 8 8 8 8 7 7 7 7 6 6 6 5 4 3 3 4 4 4 5 7 7 7 8 9 9 9 8 8 7 6 7 7
14 12 12 14 11 11 10 10 9 12 9 8 9 9 8 8 8 8 7 7 7 7 6 6 5 4 4 4 4 5 6 6 7 8 9 9 8 7 7 7 7 7 7 7
15 14 18 10 10 9 10 9 9 9 9 8 8 8 8 8 7 8 9 8 8 8 7 7 6 6 5 5 5 6 6 6 7 8 8 8 8 7 7 8 8 8 8 7
16 15 12 11 10 10 10 10 8 8 9 9 8 7 9 9 8 8 9 9 9 9 8 8 8 7 7 7 7 8 8 8 8 7 8 8 8 8 7 8 8 7 7 8
16 16 18 11 9 9 8 12 8 8 9 8 8 10 8 9 9 10 10 9 9 9 8 8 8 8 8 8 8 9 8 8 7 7 7 7 7 8 9 8 8 8 9 8
16 15 13 10 9 8 13 11 8 8 7 7 8 8 8 9 10 10 10 10 9 9 9 9 8 8 8 8 9 8 7 7 7 8 8 8 9 9 9 9 9 9 9 9
15 15 16 9 10 11 8 8 7 7 6 7 9 10 10 10 10 10 10 10 9 9 9 9 8 8 8 9 8 7 9 10 10 9 10 10 9 9 9 9 10 10 10 10
12 12 8 9 7 7 7 7 7 7 7 8 10 10 10 11 10 10 10 10 9 9 10 9 9 9 10 10 9 10 10 11 11 11 11 11 10 10 10 10 10 11 10 10
10 9 9 8 8 8 7 7 6 6 6 8 9 10 11 11 11 11 10 10 10 10 11 11 11 11 11 11 11 11 12 12 11 11 11 11 10 11 11 11 11 11 11 10
11 10 9 8 8 7 8 7 7 7 8 8 9 10 10 11 11 11 11 11 11 11 12 12 12 12 12 12 11 12 12 13 13 13 13 13 13 13 13 12 12 12 12 11
12 8 7 7 6 8 9 8 8 9 9 9 9 10 10 11 11 11 12 11 12 12 13 14 14 14 13 13 13 13 14 14 15 15 14 14 14 14 13 14 13 12 12 12
8 8 10 11 10 9 9 9 9 9 9 10 10 10 11 12 12 12 12 12 13 14 15 15 15 16 15 15 15 15 16 16 15 15 15 15 15 15 16 13 13 13 13 13
10 9 11 11 11 11 11 11 10 10 10 10 11 11 12 12 12 13 14 14 15 15 15 15 16 17 16 16 16 16 16 17 16 15 15 16 16 16 15 15 15 14 13 13
11 10 10 12 12 13 12 12 13 13 13 13 12 13 13 14 14 14 15 15 16 16 16 16 17 18 16 16 17 17 16 17 17 16 16 17 17 17 16 16 15 15 14 14
12 12 12 12 13 13 13 13 14 14 13 13 13 13 14 14 15 15 16 16 16 17 18 19 18 18 17 17 17 17 17 18 18 17 18 18 17 17 17 16 16 16 16 16
13 14 14 14 14 14 14 13 13 14 14 14 15 15 15 16 16 17 17 17 18 18 18 18 19 18 18 18 18 18 18 18 20 19 19 18 18 18 17 17 17 17 16 16
11 11 12 13 14 14 14 14 14 14 15 15 16 16 16 17 17 18 18 18 19 19 19 19 19 19 19 19 19 19 20 20 20 19 19 19 19 18 17 18 18 18 17 17
11 12 13 13 13 14 14 15 15 15 16 16 16 17 17 17 18 18 18 19 19 20 20 19 19 19 19 20 20 20 21 21 20 20 20 20 19 19 19 19 18 18 18 18
13 13 14 14 14 14 15 15 15 16 15 16 17 18 18 19 19 19 18 19 18 18 19 19 20 20 20 21 21 21 21 21 21 20 20 20 20 20 20 20 20 19 19 19
14 15 15 14 15 15 15 15 16 17 17 16 17 18 18 19 19 19 19 20 19 18 19 20 20 20 20 20 20 21 21 21 21 20 20 21 21 21 21 20 20 20 20 20
15 15 16 15 16 16 16 16 16 17 18 19 19 19 19 19 20 20 19 19 18 19 19 19 19 22 21 21 20 20 20 20 20 20 20 21 21 22 22 21 22 21 21 20
15 15 16 16 17 17 17 18 18 18 19 19 19 18 18 19 18 19 20 18 18 19 18 19 22 23 23 20 20 19 20 20 20 20 21 21 22 22 22 23 23 23 22 21
15 15 16 16 17 17 18 18 17 18 18 18 18 18 18 19 19 18 18 20 21 19 19 20 21 22 23 20 19 19 20 20 20 21 20 24 21 22 22 24 24 23 23 22
15 15 16 16 17 18 18 17 17 17 17 18 18 17 17 17 17 18 18 19 19 19 19 23 23 24 20 19 19 20 20 20 20 21 21 21 22 23 23 23 24 24 23 22
17 17 17 17 17 17 17 17 18 18 18 18 18 18 18 18 18 19 19 19 19 20 19 19 20 20 20 20 20 20 20 20 20 20 22 22 23 23 24 24 25 24 23 23
18 18 18 19 18 18 17 17 17 18 18 17 18 18 18 18 19 18 19 19 19 19 19 20 20 20 20 20 20 20 20 20 21 21 21 23 23 24 25 25 24 24 24 24

GFSNGP_con_lsi_048.txt.gz
Lid_Strength_Index
8 8 8 8 9 8 9 9 11 10 9 8 6 6 5 5 5 5 4 4 4 4 3 3 3 2 2 2 1 2 3 4 4 5 5 5 4 4 5 6 6 7 7 7
10 8 8 9 8 8 8 8 8 9 9 6 5 5 5 5 5 5 5 5 4 3 3 3 3 2 2 2 2 1 2 3 4 4 4 5 6 6 6 7 6 6 6 6
12 9 10 13 10 9 8 8 8 10 7 5 6 6 5 5 5 5 5 4 4 4 4 3 3 2 2 2 1 2 3 4 4 5 6 6 6 6 6 5 6 6 6 6
12 13 19 9 7 7 8 7 6 7 6 6 5 5 5 4 4 5 5 5 5 4 4 3 3 2 2 2 2 2 3 4 5 5 5 5 5 6 6 6 6 7 7 6
16 14 10 10 8 8 9 9 6 6 6 5 5 5 6 4 4 4 5 4 4 4 4 4 4 3 3 3 3 4 5 5 5 5 5 5 6 6 6 7 7 6 6 6
13 15 19 9 6 5 6 11 5 5 6 5 6 9 6 5 5 6 5 5 5 5 5 5 4 3 4 4 5 5 5 5 5 5 5 6 7 8 8 7 6 6 7 7
14 15 11 7 6 6 12 10 5 5 5 5 7 5 4 5 6 5 6 6 5 5 5 4 4 4 5 5 6 5 5 5 6 6 7 9 9 8 7 7 7 7 8 7
12 16 17 6 7 9 6 5 5 5 4 5 4 5 5 6 6 7 7 6 6 6 5 5 4 5 5 6 6 6 6 8 9 8 8 8 8 8 8 8 8 8 7 8
10 11 6 5 5 4 4 4 5 4 4 4 5 6 6 7 7 7 6 6 6 6 6 6 5 5 7 7 7 7 8 9 9 9 9 9 9 9 9 9 9 9 10 9
10 7 6 6 5 5 5 4 5 4 4 4 5 6 6 6 7 7 6 6 6 7 7 8 8 8 8 8 8 9 9 10 9 10 10 10 9 10 11 11 11 12 12 12
9 7 7 6 5 4 5 5 5 4 3 4 5 6 6 7 7 7 7 7 7 8 8 9 9 9 9 9 9 10 10 11 11 11 12 12 12 12 13 12 13 13 13 13
10 6 7 5 4 4 5 6 5 5 5 4 5 6 6 7 7 7 8 8 8 9 10 11 11 11 10 10 10 11 12 13 13 13 12 12 13 12 15 15 15 15 15 15
6 6 6 7 7 4 5 5 5 5 4 5 5 6 6 7 7 9 8 9 10 11 12 12 13 13 13 13 13 13 14 14 14 14 13 14 13 13 14 13 15 15 15 15
6 7 7 8 8 8 7 7 7 7 7 6 7 7 8 8 10 9 10 10 11 12 13 14 14 15 14 14 14 14 15 16 14 14 14 14 14 14 14 15 15 14 14 15
6 7 7 8 9 9 9 9 9 9 9 9 8 10 10 11 11 12 12 13 13 13 14 15 15 16 15 14 15 15 15 15 15 14 15 16 15 15 15 15 15 15 14 14
9 9 9 9 10 11 10 10 10 11 11 11 11 11 12 12 13 13 15 14 15 17 16 18 17 16 15 15 15 15 16 18 17 15 15 16 16 16 16 16 16 15 15 14
10 10 10 11 11 11 11 10 11 12 12 12 13 14 14 15 16 17 17 17 18 19 18 18 18 17 16 16 16 16 16 17 19 16 16 17 16 16 16 16 16 15 14 13
7 7 8 9 10 11 12 11 12 13 14 14 15 15 16 16 17 18 18 18 19 19 19 18 18 18 18 17 17 17 17 17 17 17 17 17 18 17 16 16 16 15 14 14
8 9 9 10 10 11 12 13 14 15 15 15 16 16 17 17 17 18 18 19 20 20 20 19 19 18 19 19 19 18 18 18 18 18 18 19 17 17 16 16 15 15 15 14
12 12 12 12 13 14 15 15 15 16 16 16 17 17 18 18 18 18 17 18 18 18 18 19 19 19 20 20 20 18 19 18 19 18 18 18 17 17 16 16 16 15 15 15
15 15 15 16 16 15 16 16 16 16 15 15 16 17 18 18 18 18 19 20 19 18 19 19 19 19 19 19 18 18 18 18 18 18 18 18 17 16 16 16 16 16 16 15
16 16 16 15 15 15 15 15 15 16 16 17 17 18 18 19 18 18 17 18 18 18 18 18 19 20 19 21 18 17 18 18 18 17 17 17 17 17 17 17 17 16 16 16
15 15 15 16 16 16 16 16 17 17 17 17 17 17 17 17 17 18 19 18 17 18 17 18 20 21 22 17 17 17 17 18 17 17 16 17 17 17 17 17 17 18 17 17
15 16 16 15 15 16 17 17 17 17 17 17 17 17 17 17 17 17 17 18 19 18 18 18 19 21 21 17 17 17 17 16 16 16 16 19 17 17 17 18 18 18 18 18
15 15 16 16 17 17 17 16 17 17 17 17 17 17 17 16 15 17 17 18 19 18 17 20 21 22 17 17 17 17 17 16 16 16 17 17 17 17 17 17 18 18 19 19
16 17 16 16 16 16 16 16 17 17 16 17 17 16 16 16 17 17 17 17 17 18 17 16 16 16 16 16 17 17 17 16 16 16 17 17 17 17 18 18 19 19 19 19
18 17 17 18 17 17 17 17 17 17 17 16 16 16 16 16 16 16 17 16 16 16 15 15 15 16 16 16 16 16 16 16 17 17 17 17 17 17 18 19 19 19 19 19

GFSNGP_con_lsi_054.txt.gz
Lid_Strength_Index
9 8 9 9 9 9 10 10 14 12 10 8 7 6 6 5 5 4 4 4 4 4 4 3 3 3 2 2 3 3 4 4 5 5 5 5 6 7 7 7 8 8 8 8
11 9 9 10 9 9 9 9 9 9 9 6 5 5 6 5 5 5 4 4 4 3 3 3 3 3 3 3 3 3 4 4 3 4 4 5 6 6 6 7 7 7 6 7
14 10 10 13 10 9 8 8 8 10 8 6 6 6 5 5 5 5 4 4 3 3 3 3 3 3 3 2 2 3 3 4 4 4 5 5 4 4 5 5 5 5 6 6
14 13 18 10 7 7 8 7 7 7 6 6 6 5 5 4 4 4 4 4 4 4 4 3 3 2 3 2 3 4 4 4 4 5 5 5 5 5 5 5 6 6 6 7
16 15 12 9 8 8 9 9 6 7 6 6 5 5 4 4 3 3 4 4 3 3 3 3 3 3 3 4 4 4 5 5 4 5 5 5 5 5 6 6 7 6 6 7
14 17 19 11 7 5 6 12 6 6 6 6 5 9 6 4 3 4 3 3 3 3 2 3 3 3 4 4 5 5 5 5 4 4 4 6 6 6 7 6 6 6 7 8
15 16 13 7 6 5 13 12 6 5 5 5 6 5 4 4 4 3 3 3 2 2 3 3 3 3 4 4 5 4 4 4 5 5 5 6 7 7 7 7 8 10 10 10
14 16 18 6 7 10 8 6 5 5 4 3 4 5 4 4 4 4 3 3 3 3 3 3 3 3 4 5 4 4 5 5 5 6 6 7 7 8 8 9 10 11 12 12
12 12 7 6 6 5 5 5 5 5 4 4 5 5 4 4 4 4 3 4 3 3 4 4 3 4 5 5 5 5 6 6 7 7 7 8 9 9 10 10 12 13 14 14
10 8 7 7 5 5 4 5 4 4 4 3 5 5 5 4 4 4 4 4 3 4 5 4 4 4 5 5 5 6 7 8 8 9 9 10 11 12 12 14 14 14 14 15
9 7 6 6 5 5 5 4 4 3 3 4 4 4 4 4 4 4 4 4 4 4 5 5 5 5 5 6 6 8 8 9 10 10 12 13 14 14 15 16 16 15 16 15
11 7 7 6 5 4 4 4 4 4 4 4 4 4 4 5 4 4 4 5 5 5 6 6 7 7 7 7 7 9 10 11 13 13 14 13 15 16 15 16 16 16 16 17
6 5 5 5 4 4 5 4 4 4 4 4 3 4 4 5 5 6 5 5 6 6 7 8 8 8 9 8 10 12 14 14 14 14 14 15 15 15 17 16 16 16 16 17
4 5 6 5 6 5 5 5 4 3 3 4 4 4 5 6 6 6 7 7 8 9 10 11 12 13 12 13 14 15 16 15 14 14 15 15 15 15 15 16 17 17 16 16
5 4 5 4 5 5 5 5 5 5 5 5 5 5 6 7 7 7 8 9 10 12 13 14 15 15 14 14 15 15 16 16 15 16 17 17 16 16 16 16 16 16 16 16
5 5 5 5 6 6 7 7 7 7 7 6 7 7 7 8 10 11 11 12 14 16 17 17 17 16 15 17 17 18 18 18 16 16 17 17 16 17 17 17 17 17 17 17
7 7 6 7 6 7 7 7 7 7 8 10 12 13 15 17 18 18 18 18 18 18 19 19 19 18 17 17 16 17 18 19 19 17 17 17 17 17 17 17 17 17 17 20
7 7 7 7 6 7 8 9 11 13 14 15 15 17 18 19 20 19 19 19 19 20 19 19 19 19 19 18 18 18 18 18 18 18 18 18 19 18 18 18 17 18 17 16
11 10 10 10 11 12 13 14 15 15 15 16 17 19 19 19 19 19 19 20 21 21 21 19 19 20 20 19 18 18 19 18 19 18 18 20 19 18 18 18 18 18 18 17
14 13 13 14 13 14 15 15 15 16 17 17 18 18 19 19 18 19 19 20 20 20 19 19 20 20 21 20 19 19 19 19 19 19 19 20 19 18 18 18 18 18 17 17
15 15 15 15 15 15 16 16 17 18 18 18 18 19 19 19 19 20 21 22 20 19 19 19 19 20 20 20 19 18 19 19 19 19 19 18 18 18 18 18 18 18 17 16
16 16 17 17 17 17 17 17 18 18 18 19 19 19 19 19 19 19 19 20 20 19 19 19 20 21 21 21 19 18 19 19 19 19 19 18 19 19 19 18 17 17 17 18
16 16 17 17 18 18 17 17 17 17 18 18 18 18 18 18 18 20 21 18 18 18 19 20 21 21 21 19 19 19 19 19 19 19 19 19 18 18 18 18 18 18 18 17
16 16 16 16 16 17 18 17 17 17 17 17 17 16 17 18 18 17 18 18 18 19 19 20 21 21 22 19 19 19 19 19 19 19 18 18 17 17 17 18 18 18 18 19
16 16 15 16 17 17 17 16 17 17 17 17 17 17 17 16 17 18 18 18 18 18 20 21 21 21 19 19 19 19 19 18 18 18 18 18 18 18 18 17 18 18 19 20
17 17 17 17 17 16 16 17 17 16 17 18 17 17 17 17 17 18 18 18 18 19 18 18 19 19 18 18 18 18 17 17 17 17 18 18 18 19 18 18 19 19 19 19
18 17 18 18 17 17 18 18 18 19 18 17 18 17 17 17 17 17 17 17 17 17 17 17 16 17 17 18 17 17 17 17 17 18 18 19 19 19 19 19 19 20 20 20

GFSNGP_con_lsi_057.txt.gz
Lid_Strength_Index
11 10 9 10 10 10 11 11 14 13 12 10 9 9 8 6 6 6 6 6 5 5 5 4 4 4 5 4 4 4 5 5 6 6 6 7 7 7 7 7 7 8 8 8
12 10 10 11 10 10 9 10 10 10 11 7 7 7 7 7 6 6 6 6 5 4 4 4 4 4 5 6 6 5 6 6 6 6 7 8 8 8 8 8 8 8 8 8
15 11 11 14 11 10 10 9 9 12 10 8 8 8 7 7 6 6 7 6 6 5 4 4 4 4 5 5 5 6 6 6 6 6 7 7 7 8 7 7 8 8 8 8
16 14 19 11 8 9 10 9 9 9 9 8 8 7 7 7 7 6 7 5 5 4 4 4 3 4 4 5 6 6 6 7 6 7 7 7 8 8 8 8 8 8 7 7
16 16 13 11 9 10 10 11 8 9 9 8 8 8 8 6 6 5 5 5 6 5 5 6 5 6 7 6 7 7 7 7 8 7 7 8 8 7 8 7 7 7 7 8
16 18 19 12 8 6 7 13 7 7 8 7 8 11 9 6 5 5 5 5 5 5 6 6 6 6 7 8 8 8 7 7 7 7 7 7 7 7 7 7 7 7 8 10
16 18 15 9 7 6 14 13 7 6 7 7 9 8 7 5 5 5 5 6 6 6 6 6 6 7 8 8 8 7 6 6 6 7 7 8 8 8 8 9 10 12 12 12
15 18 19 8 8 10 9 7 6 6 7 7 6 6 6 5 5 6 6 6 6 6 6 6 6 6 7 8 6 6 6 7 7 8 7 7 8 9 9 11 12 13 13 15
13 14 9 7 8 6 6 7 6 6 6 6 7 7 6 6 6 6 6 6 6 6 6 6 6 6 7 7 7 7 7 8 8 7 8 8 11 11 11 12 14 15 15 16
11 9 8 7 6 6 5 6 5 5 6 5 6 6 7 6 6 6 6 7 6 6 6 6 6 6 6 6 7 8 8 9 9 10 11 12 11 12 14 16 16 16 16 17
10 8 7 6 7 6 6 5 6 5 5 5 5 5 6 7 7 7 7 7 5 6 7 7 7 7 7 7 7 9 9 10 11 12 14 15 14 15 17 17 16 17 17 17
12 8 8 7 6 5 6 6 6 5 5 5 5 6 6 7 7 7 7 7 7 7 8 8 8 8 8 8 9 10 12 13 14 15 15 15 16 17 16 16 16 16 16 17
7 6 6 6 5 6 6 6 5 6 5 6 6 6 6 7 7 9 8 8 8 10 11 13 14 14 12 11 12 13 14 14 14 15 15 16 17 18 19 17 16 16 16 16
6 6 7 7 7 6 6 6 6 6 6 6 6 6 7 7 8 8 9 10 11 14 15 16 16 16 15 15 15 15 15 15 16 16 17 17 17 17 17 18 18 18 16 17
7 6 7 7 6 7 7 7 7 8 8 8 7 8 8 9 10 11 11 13 15 16 16 16 17 18 17 16 16 16 17 17 18 18 18 17 17 17 17 17 17 17 17 17
7 6 6 7 6 7 7 8 9 10 11 12 14 15 15 15 17 17 16 17 18 20 19 19 18 17 17 17 17 18 18 17 17 17 17 17 17 18 17 17 17 18 18 19
9 10 10 9 8 10 11 11 12 14 15 16 17 16 17 18 18 19 19 19 19 19 19 19 19 17 16 16 18 18 18 19 18 17 18 18 18 18 18 18 19 19 20 21
10 10 10 11 11 12 13 14 14 15 16 17 17 18 19 19 20 19 19 19 20 20 19 20 19 17 17 18 18 18 19 18 18 19 18 19 20 19 19 19 19 20 20 20
13 13 13 13 13 14 15 16 16 16 17 17 18 19 19 19 20 20 19 20 20 22 21 19 18 19 19 19 19 19 19 19 19 19 19 20 20 19 20 20 20 21 20 20
15 14 15 15 15 15 16 16 16 17 17 17 17 18 19 19 20 20 21 21 20 20 19 20 20 21 20 20 19 19 19 20 19 20 20 21 21 21 21 20 20 21 21 22
16 16 17 17 18 18 17 17 18 18 18 18 19 20 20 20 20 21 22 22 21 19 19 20 20 21 20 20 19 19 20 21 21 21 21 22 22 22 22 22 23 23 24 22
17 18 18 18 18 18 18 18 18 19 19 19 19 20 20 21 21 21 20 21 19 19 20 21 22 22 21 20 19 20 20 20 21 21 21 22 24 25 25 26 25 23 24 25
17 18 18 19 19 19 18 18 18 18 19 19 19 19 19 19 19 21 21 18 19 21 21 22 22 22 22 20 20 21 22 22 23 23 23 22 22 23 25 26 24 26 27 25
17 17 17 17 17 18 19 18 18 18 18 18 19 18 18 20 20 19 19 20 20 21 21 22 22 22 23 22 22 23 24 26 25 24 24 24 26 26 23 24 24 23 23 25
18 18 17 17 18 18 17 17 18 18 18 19 19 18 19 18 20 20 20 20 20 21 23 23 23 24 23 23 23 24 25 24 23 24 22 23 25 27 28 25 23 23 24 25
18 18 19 19 19 19 18 19 20 18 19 20 19 19 19 19 19 20 21 22 21 22 20 25 25 23 25 26 28 28 27 24 22 23 26 27 28 28 26 24 24 24 26 29
18 18 18 18 18 18 19 19 20 20 19 19 20 19 19 19 19 19 20 21 19 21 23 23 20 20 20 22 21 23 26 27 26 24 24 28 30 30 26 26 28 31 32 32

GFSNGP_con_lsi_060.txt.gz
Lid_Strength_Index
11 11 10 11 11 11 12 12 14 12 12 10 9 8 8 8 8 7 8 6 5 5 5 5 4 4 3 3 2 2 2 2 2 2 4 5 6 6 7 7 8 9 8 8
13 10 10 11 10 10 10 11 11 11 12 8 8 8 8 8 7 7 8 6 5 5 4 4 4 5 5 5 3 3 3 4 5 6 6 7 7 7 8 8 9 8 8 8
17 12 11 15 12 11 10 10 10 13 10 7 8 7 7 8 7 7 7 7 5 5 4 4 5 5 6 6 5 5 6 6 6 6 7 8 8 8 9 9 8 8 9 9
17 15 19 11 9 9 10 9 9 10 9 8 8 7 7 6 7 7 7 7 6 4 4 4 4 5 6 5 6 6 6 7 7 8 8 8 8 8 8 9 9 8 8 9
17 17 14 12 10 10 11 11 8 9 9 9 8 9 9 7 7 7 7 6 5 4 4 4 4 5 6 6 7 7 7 7 7 8 8 8 9 10 10 10 9 9 8 8
16 19 21 13 9 8 8 14 9 9 9 8 8 13 10 7 6 5 5 4 4 5 6 6 6 6 7 8 8 8 8 8 8 8 9 10 10 10 9 8 8 8 9 10
16 17 15 10 8 7 14 13 8 7 7 8 9 9 8 6 6 5 5 6 6 5 6 8 8 8 9 9 9 9 8 9 9 9 9 9 9 8 8 10 11 12 13 13
15 17 19 8 9 12 10 7 7 7 7 8 7 8 7 5 5 5 6 6 7 7 8 8 8 9 9 10 9 9 9 10 10 9 8 8 8 9 11 12 13 14 15 16
13 13 8 7 7 6 6 7 7 7 6 6 7 7 7 7 6 6 6 6 6 7 9 9 8 8 10 10 9 9 9 10 9 8 8 9 10 11 12 12 13 14 15 17
12 9 8 7 6 6 6 6 5 6 6 6 6 7 7 7 7 7 7 7 8 8 8 9 8 8 8 8 8 8 9 9 9 11 12 13 13 13 14 15 14 15 15 17
10 8 8 7 6 6 6 5 5 6 6 7 6 6 6 7 8 8 7 7 7 8 8 8 7 8 7 7 8 9 10 12 13 14 14 16 17 16 16 16 15 15 16 16
12 8 8 8 6 5 6 6 6 6 6 6 7 6 6 7 7 7 8 8 8 9 9 10 10 10 9 9 9 11 14 14 15 16 16 17 17 17 15 15 15 15 16 17
8 6 7 6 7 6 6 6 6 6 6 6 5 6 7 8 8 9 8 9 10 13 14 14 14 14 13 12 13 14 16 16 16 17 17 18 18 18 19 18 16 16 16 16
7 7 8 8 8 7 7 6 6 7 7 8 7 6 8 9 9 9 12 14 14 15 16 16 16 16 15 15 15 16 16 16 17 17 17 17 17 17 17 18 18 18 17 17
9 7 7 7 7 8 8 8 9 11 12 13 12 10 9 11 14 15 15 16 16 17 17 17 18 17 16 16 16 17 17 17 17 17 17 17 17 17 17 17 17 17 17 17
8 8 8 8 10 10 10 10 12 14 15 16 16 17 17 18 18 18 18 17 18 18 18 19 18 17 17 16 16 17 17 17 17 17 17 17 17 18 18 18 18 19 18 19
10 10 10 10 12 13 14 14 15 15 16 16 17 17 18 18 18 19 19 19 19 19 18 18 18 17 18 18 18 18 18 18 18 18 17 18 18 19 19 19 19 19 20 20
10 11 11 11 12 13 14 15 16 17 17 17 18 18 19 19 20 20 20 20 20 20 19 19 18 18 18 17 17 18 18 19 19 18 19 20 20 20 20 20 20 20 20 20
13 14 14 14 15 16 16 17 17 17 18 18 19 19 19 19 19 19 19 20 21 21 21 20 19 19 19 19 19 19 19 20 20 20 20 21 21 20 21 21 21 21 20 20
16 16 16 16 16 16 17 17 17 18 18 19 19 19 20 20 20 20 20 20 20 20 19 19 20 20 19 19 20 20 20 21 21 21 21 21 21 22 21 21 21 21 22 22
17 17 17 17 18 18 18 17 18 19 19 19 20 21 21 20 20 20 21 22 21 21 21 21 21 21 20 20 20 20 21 21 22 22 22 22 22 22 22 23 23 24 24 25
17 18 18 18 18 18 18 18 18 18 19 20 20 20 21 21 21 21 20 22 21 21 21 22 22 21 20 20 20 21 21 22 22 22 23 23 24 24 25 27 27 26 27 29
17 17 17 18 18 18 18 19 19 19 19 19 19 19 20 20 20 21 23 21 21 21 22 22 22 21 21 22 23 23 24 24 24 25 26 27 27 27 27 26 25 25 28 27
17 16 17 16 17 18 19 18 18 18 19 19 19 19 19 21 21 20 21 21 22 22 22 22 22 22 23 24 25 26 26 26 28 31 29 30 32 32 32 33 31 30 27 26
19 19 18 19 19 19 18 18 18 19 19 19 19 19 19 19 21 20 21 21 22 23 24 25 26 27 28 29 29 28 29 30 29 30 31 33 34 34 34 32 31 29 29 30
18 19 19 19 19 18 18 18 19 19 19 20 20 20 19 19 19 20 21 21 21 22 22 22 23 25 26 26 28 31 32 30 30 30 33 33 33 32 32 31 32 33 34 35
19 18 19 20 20 20 20 20 21 21 21 23 23 22 21 21 21 21 23 23 25 25 26 28 27 27 28 30 30 31 31 30 29 29 32 34 34 33 33 34 35 36 37 35

GFSNGP_con_lsi_063.txt.gz
Lid_Strength_Index
13 12 11 11 11 11 12 13 15 13 13 10 9 8 8 8 8 8 9 7 6 6 6 5 4 3 3 3 3 3 3 3 3 2 2 1 2 2 4 4 4 5 6 7
14 12 12 13 11 11 12 12 13 12 13 9 8 7 8 8 8 8 8 8 6 5 5 5 4 4 4 3 3 3 3 3 3 2 2 3 4 6 7 8 7 8 8 8
16 13 13 16 12 11 11 10 11 13 11 9 9 8 8 8 8 8 8 8 6 5 4 4 4 4 4 3 3 3 3 3 2 3 5 6 7 7 8 8 8 8 9 9
16 15 20 13 10 9 10 10 9 10 10 9 8 8 7 7 8 7 7 7 7 6 4 4 5 6 4 3 3 3 3 5 5 6 6 7 7 8 8 8 9 10 9 9
17 17 14 13 11 11 11 11 9 9 9 9 9 10 10 8 8 7 7 6 7 6 4 4 5 5 5 4 4 5 6 7 7 7 8 8 9 9 9 10 10 10 9 10
16 19 20 14 10 8 8 14 9 8 8 8 9 13 11 8 8 7 8 7 6 4 4 4 6 5 6 6 6 7 7 7 7 7 8 9 10 9 10 10 9 10 11 10
16 17 15 10 9 8 16 15 8 8 8 9 10 9 8 8 7 6 5 5 4 4 4 5 5 5 8 8 8 7 8 8 8 8 9 9 10 10 10 11 12 13 14 12
15 17 19 8 9 13 10 8 8 7 7 8 8 8 8 8 7 6 6 6 5 6 7 7 6 7 9 10 10 9 9 10 10 10 10 10 11 12 13 13 14 15 15 15
13 13 8 7 8 7 7 7 7 7 6 7 7 7 7 7 7 6 6 6 6 7 7 7 8 9 10 11 11 11 11 10 10 10 10 11 13 13 12 13 14 15 15 16
11 9 8 7 6 6 6 6 6 6 6 7 7 7 7 7 7 7 8 8 7 8 9 11 11 11 11 11 10 10 11 11 11 13 13 13 12 12 13 14 15 16 16 18
10 8 7 7 6 5 6 5 5 5 6 6 7 7 7 7 7 7 7 8 8 9 10 11 10 10 10 10 9 10 11 13 13 14 15 16 16 15 15 15 14 15 16 17
13 9 9 8 6 5 6 6 5 6 6 6 5 6 7 7 7 8 8 9 10 10 10 10 10 10 9 9 10 13 15 15 15 16 16 16 17 17 15 15 15 15 16 17
8 7 8 6 6 6 7 6 6 7 8 8 8 6 6 8 9 10 10 11 12 13 13 13 14 14 13 12 13 14 15 16 17 17 17 17 17 18 19 17 16 16 16 17
7 7 8 7 8 7 7 8 9 11 12 13 11 8 9 10 12 14 15 15 15 15 16 16 16 16 15 15 15 16 16 16 16 17 17 17 17 17 17 18 19 19 17 17
9 7 8 7 9 10 10 11 12 14 15 15 15 15 15 16 17 17 17 17 17 17 17 17 17 17 16 16 16 16 17 17 17 17 17 17 17 17 17 17 18 18 18 17
10 8 8 10 11 12 13 13 14 16 16 17 17 17 18 18 18 18 18 17 18 19 18 18 18 17 16 16 16 17 17 17 17 18 18 18 17 18 18 18 19 19 19 20
11 11 11 10 12 14 14 15 15 16 16 17 17 18 18 19 19 20 20 20 20 20 19 19 19 18 17 17 17 17 18 18 18 19 19 18 19 19 19 20 20 20 21 21
12 13 13 13 14 15 15 16 16 16 17 17 18 19 19 20 20 20 20 20 20 21 19 19 18 18 18 18 17 18 18 19 19 20 20 20 20 20 20 20 21 21 21 21
15 15 15 15 16 16 17 17 17 17 18 19 19 20 20 20 20 20 20 21 21 22 20 18 17 18 18 18 18 18 19 19 20 20 20 21 21 21 22 21 22 21 21 21
16 16 16 17 16 17 18 18 18 18 18 19 20 20 21 21 20 21 21 22 21 20 19 19 19 19 19 19 19 20 21 21 21 22 22 22 22 23 22 22 22 23 23 23
17 17 18 18 18 18 18 18 19 19 19 20 20 21 21 21 21 21 23 24 22 21 21 21 20 20 20 20 21 21 21 22 22 23 23 23 24 24 25 25 25 25 26 27
18 18 18 18 19 19 18 18 18 19 19 20 20 20 21 22 22 23 22 23 22 22 21 21 21 22 22 22 22 23 23 23 23 24 24 25 26 27 29 29 29 30 30 31
17 17 17 18 19 19 18 19 19 19 20 20 21 21 21 20 21 23 24 22 21 22 22 22 23 23 23 23 24 24 25 26 26 27 28 30 31 31 31 31 31 32 33 30
18 18 17 17 18 19 20 19 18 19 19 19 20 20 20 22 22 21 21 22 22 23 23 24 25 25 26 26 27 27 28 28 31 33 31 33 35 34 35 36 34 35 34 32
19 19 18 18 19 19 19 19 20 20 20 20 20 19 20 19 21 21 22 22 22 23 24 26 27 28 28 29 30 32 34 34 35 35 36 36 37 37 37 35 35 34 35 36
20 20 20 20 19 19 19 19 21 21 21 22 21 22 21 21 21 22 23 25 24 25 26 29 30 30 31 31 35 35 34 30 33 34 35 36 36 35 35 35 36 36 37 38
20 20 20 21 20 21 21 21 22 23 24 26 24 23 22 23 25 25 28 29 30 30 32 33 33 32 33 35 34 33 33 33 33 33 37 36 36 37 37 37 38 38 39 38